GEFSMA_prec_meanprecacc_060.txt.gz
Total_Precipitation_Accumulation
0.00 0.00 0.00 0.00 0.00 0.00 0.00 0.00 0.00 0.00 0.00 0.00 0.00 0.00 0.00 0.00 0.00 0.00 0.00 0.00 0.00 0.00 0.00 0.00 0.01 0.02 0.04 0.06 0.08 0.09 0.10 0.10 0.10 0.10 0.10 0.11 0.11 0.12 0.13 0.14 0.14 0.15 0.15
0.00 0.00 0.00 0.00 0.00 0.00 0.00 0.00 0.00 0.00 0.00 0.00 0.00 0.00 0.00 0.00 0.00 0.00 0.00 0.00 0.00 0.00 0.00 0.00 0.01 0.02 0.04 0.05 0.07 0.08 0.09 0.09 0.09 0.10 0.11 0.12 0.12 0.13 0.14 0.15 0.16 0.16 0.17
0.00 0.00 0.00 0.00 0.00 0.00 0.00 0.00 0.00 0.00 0.00 0.00 0.00 0.00 0.00 0.00 0.00 0.00 0.00 0.00 0.00 0.00 0.00 0.00 0.01 0.01 0.02 0.02 0.04 0.06 0.07 0.09 0.10 0.11 0.12 0.14 0.15 0.15 0.16 0.17 0.18 0.20 0.20
0.00 0.00 0.00 0.00 0.00 0.00 0.00 0.00 0.00 0.00 0.00 0.00 0.00 0.00 0.00 0.00 0.00 0.00 0.00 0.00 0.00 0.00 0.00 0.00 0.00 0.01 0.01 0.01 0.01 0.03 0.05 0.07 0.09 0.11 0.13 0.15 0.17 0.18 0.20 0.22 0.24 0.25 0.25
0.01 0.01 0.00 0.00 0.00 0.00 0.00 0.00 0.00 0.00 0.00 0.00 0.00 0.00 0.00 0.00 0.00 0.00 0.00 0.00 0.00 0.00 0.00 0.00 0.00 0.00 0.00 0.00 0.01 0.02 0.03 0.05 0.08 0.10 0.12 0.14 0.17 0.20 0.24 0.28 0.31 0.33 0.35
0.04 0.02 0.01 0.01 0.00 0.00 0.00 0.00 0.00 0.00 0.00 0.00 0.00 0.00 0.00 0.00 0.00 0.00 0.00 0.00 0.00 0.00 0.00 0.00 0.00 0.00 0.00 0.01 0.01 0.02 0.03 0.04 0.06 0.08 0.10 0.12 0.15 0.19 0.23 0.28 0.33 0.37 0.41
0.11 0.06 0.04 0.03 0.02 0.01 0.01 0.01 0.01 0.00 0.00 0.00 0.00 0.00 0.00 0.00 0.00 0.00 0.00 0.00 0.00 0.00 0.00 0.00 0.00 0.00 0.01 0.01 0.02 0.02 0.02 0.03 0.05 0.07 0.09 0.12 0.15 0.20 0.24 0.29 0.33 0.36 0.41
0.16 0.12 0.09 0.07 0.05 0.04 0.03 0.02 0.01 0.01 0.01 0.01 0.01 0.02 0.01 0.00 0.00 0.00 0.00 0.00 0.00 0.00 0.00 0.00 0.00 0.01 0.01 0.01 0.01 0.01 0.01 0.01 0.02 0.06 0.11 0.15 0.19 0.23 0.27 0.32 0.36 0.40 0.45
0.25 0.20 0.17 0.15 0.13 0.11 0.07 0.06 0.05 0.03 0.03 0.02 0.02 0.04 0.04 0.03 0.02 0.01 0.00 0.00 0.00 0.00 0.00 0.00 0.00 0.00 0.00 0.00 0.01 0.00 0.01 0.02 0.03 0.05 0.10 0.16 0.21 0.26 0.31 0.36 0.41 0.46 0.51
0.27 0.26 0.25 0.22 0.20 0.17 0.14 0.14 0.13 0.12 0.09 0.06 0.05 0.04 0.05 0.06 0.07 0.05 0.02 0.01 0.00 0.00 0.00 0.00 0.00 0.00 0.00 0.01 0.01 0.01 0.02 0.04 0.06 0.07 0.10 0.17 0.25 0.34 0.42 0.48 0.54 0.60 0.64
0.21 0.24 0.26 0.24 0.22 0.22 0.23 0.23 0.20 0.19 0.16 0.14 0.11 0.10 0.08 0.07 0.08 0.09 0.06 0.03 0.02 0.01 0.01 0.00 0.00 0.00 0.00 0.00 0.01 0.01 0.03 0.06 0.09 0.12 0.17 0.26 0.37 0.47 0.57 0.66 0.75 0.80 0.82
0.16 0.17 0.21 0.22 0.24 0.26 0.27 0.26 0.26 0.24 0.22 0.20 0.16 0.15 0.14 0.12 0.10 0.11 0.10 0.06 0.05 0.03 0.02 0.01 0.01 0.01 0.01 0.01 0.02 0.03 0.04 0.05 0.07 0.11 0.18 0.29 0.39 0.48 0.57 0.66 0.75 0.83 0.90
0.12 0.14 0.17 0.21 0.25 0.27 0.31 0.31 0.28 0.25 0.24 0.21 0.18 0.16 0.14 0.12 0.12 0.14 0.15 0.13 0.11 0.07 0.06 0.04 0.03 0.02 0.02 0.03 0.02 0.02 0.02 0.03 0.04 0.08 0.12 0.22 0.28 0.30 0.35 0.43 0.56 0.69 0.81
0.14 0.17 0.19 0.21 0.23 0.25 0.26 0.26 0.25 0.23 0.21 0.19 0.16 0.13 0.11 0.09 0.09 0.10 0.13 0.16 0.15 0.11 0.08 0.07 0.06 0.05 0.05 0.04 0.03 0.03 0.02 0.02 0.03 0.05 0.08 0.12 0.15 0.17 0.20 0.27 0.37 0.48 0.60
0.11 0.13 0.15 0.17 0.19 0.20 0.20 0.20 0.19 0.17 0.16 0.14 0.12 0.10 0.09 0.08 0.07 0.07 0.09 0.14 0.18 0.15 0.09 0.07 0.07 0.07 0.07 0.06 0.05 0.06 0.05 0.04 0.05 0.08 0.11 0.12 0.13 0.15 0.19 0.23 0.29 0.39 0.48
0.08 0.10 0.12 0.13 0.14 0.14 0.14 0.14 0.13 0.11 0.10 0.10 0.09 0.08 0.08 0.08 0.08 0.08 0.09 0.11 0.14 0.16 0.12 0.06 0.06 0.07 0.09 0.08 0.06 0.07 0.07 0.09 0.11 0.12 0.13 0.15 0.18 0.23 0.26 0.28 0.30 0.36 0.45
0.06 0.07 0.09 0.10 0.10 0.10 0.09 0.09 0.09 0.08 0.08 0.08 0.08 0.09 0.09 0.10 0.10 0.10 0.10 0.09 0.09 0.11 0.11 0.05 0.03 0.04 0.06 0.07 0.06 0.07 0.06 0.07 0.07 0.09 0.13 0.15 0.18 0.23 0.28 0.32 0.34 0.37 0.43
0.05 0.06 0.06 0.05 0.05 0.05 0.05 0.06 0.06 0.07 0.07 0.08 0.10 0.11 0.12 0.13 0.14 0.13 0.12 0.11 0.10 0.10 0.12 0.09 0.04 0.02 0.03 0.04 0.04 0.05 0.05 0.07 0.06 0.07 0.11 0.14 0.17 0.22 0.27 0.30 0.33 0.36 0.40
0.05 0.05 0.04 0.04 0.04 0.04 0.04 0.04 0.05 0.06 0.08 0.10 0.11 0.13 0.14 0.15 0.15 0.13 0.11 0.09 0.08 0.07 0.09 0.11 0.06 0.02 0.02 0.02 0.04 0.03 0.04 0.05 0.06 0.07 0.09 0.11 0.16 0.21 0.26 0.29 0.30 0.31 0.32
0.06 0.05 0.05 0.04 0.04 0.05 0.06 0.07 0.08 0.10 0.12 0.14 0.15 0.15 0.15 0.14 0.12 0.09 0.07 0.06 0.07 0.07 0.07 0.11 0.12 0.09 0.06 0.04 0.06 0.06 0.05 0.05 0.05 0.05 0.06 0.07 0.09 0.12 0.14 0.17 0.20 0.22 0.24
0.06 0.06 0.07 0.08 0.08 0.09 0.11 0.14 0.16 0.18 0.19 0.20 0.19 0.17 0.14 0.11 0.08 0.06 0.06 0.07 0.07 0.10 0.17 0.22 0.20 0.14 0.09 0.08 0.07 0.07 0.09 0.07 0.05 0.04 0.04 0.03 0.04 0.05 0.06 0.09 0.15 0.20 0.26
0.09 0.10 0.13 0.16 0.21 0.24 0.30 0.28 0.24 0.22 0.20 0.17 0.14 0.11 0.09 0.06 0.04 0.05 0.05 0.07 0.13 0.22 0.29 0.32 0.26 0.17 0.08 0.05 0.07 0.12 0.18 0.21 0.15 0.04 0.06 0.04 0.03 0.04 0.07 0.12 0.19 0.26 0.33
0.20 0.23 0.26 0.30 0.32 0.33 0.31 0.24 0.19 0.15 0.13 0.11 0.08 0.06 0.04 0.02 0.02 0.02 0.02 0.08 0.14 0.19 0.23 0.22 0.17 0.10 0.10 0.12 0.23 0.32 0.29 0.27 0.17 0.04 0.06 0.07 0.04 0.06 0.08 0.14 0.25 0.29 0.36
0.34 0.36 0.37 0.38 0.36 0.32 0.26 0.19 0.14 0.11 0.09 0.06 0.04 0.02 0.01 0.01 0.02 0.05 0.12 0.17 0.11 0.07 0.06 0.06 0.09 0.13 0.16 0.16 0.23 0.33 0.29 0.22 0.10 0.04 0.07 0.14 0.10 0.10 0.09 0.13 0.23 0.25 0.29
0.43 0.41 0.37 0.32 0.26 0.21 0.16 0.11 0.07 0.05 0.03 0.02 0.01 0.01 0.03 0.03 0.05 0.17 0.26 0.22 0.10 0.03 0.02 0.07 0.12 0.12 0.10 0.09 0.11 0.27 0.38 0.39 0.24 0.07 0.06 0.12 0.10 0.11 0.15 0.17 0.22 0.26 0.27
0.33 0.29 0.24 0.20 0.15 0.11 0.07 0.04 0.03 0.02 0.02 0.01 0.02 0.02 0.03 0.05 0.13 0.26 0.24 0.19 0.10 0.06 0.09 0.06 0.03 0.01 0.01 0.02 0.08 0.23 0.57 0.84 0.58 0.28 0.09 0.22 0.24 0.29 0.42 0.22 0.21 0.24 0.25

GEFSMA_prec_meanprecacc_066.txt.gz
Total_Precipitation_Accumulation
0.00 0.00 0.00 0.00 0.00 0.00 0.00 0.00 0.00 0.00 0.00 0.00 0.00 0.00 0.00 0.00 0.00 0.00 0.00 0.00 0.00 0.00 0.00 0.00 0.01 0.02 0.04 0.06 0.08 0.09 0.10 0.10 0.10 0.10 0.10 0.11 0.11 0.12 0.13 0.14 0.14 0.15 0.15
0.00 0.00 0.00 0.00 0.00 0.00 0.00 0.00 0.00 0.00 0.00 0.00 0.00 0.00 0.00 0.00 0.00 0.00 0.00 0.00 0.00 0.00 0.00 0.00 0.01 0.02 0.04 0.05 0.07 0.08 0.09 0.09 0.09 0.10 0.11 0.12 0.12 0.13 0.14 0.15 0.16 0.16 0.17
0.00 0.00 0.00 0.00 0.00 0.00 0.00 0.00 0.00 0.00 0.00 0.00 0.00 0.00 0.00 0.00 0.00 0.00 0.00 0.00 0.00 0.00 0.00 0.00 0.01 0.01 0.02 0.02 0.04 0.06 0.07 0.09 0.10 0.11 0.12 0.14 0.15 0.15 0.16 0.17 0.18 0.20 0.20
0.00 0.00 0.00 0.00 0.00 0.00 0.00 0.00 0.00 0.00 0.00 0.00 0.00 0.00 0.00 0.00 0.00 0.00 0.00 0.00 0.00 0.00 0.00 0.00 0.00 0.01 0.01 0.01 0.01 0.03 0.05 0.07 0.09 0.11 0.13 0.15 0.17 0.18 0.20 0.22 0.24 0.25 0.26
0.01 0.01 0.00 0.00 0.00 0.00 0.00 0.00 0.00 0.00 0.00 0.00 0.00 0.00 0.00 0.00 0.00 0.00 0.00 0.00 0.00 0.00 0.00 0.00 0.00 0.00 0.00 0.00 0.01 0.02 0.03 0.05 0.08 0.10 0.12 0.14 0.17 0.20 0.24 0.28 0.31 0.33 0.35
0.04 0.03 0.02 0.01 0.00 0.00 0.00 0.00 0.00 0.00 0.00 0.00 0.00 0.00 0.00 0.00 0.00 0.00 0.00 0.00 0.00 0.00 0.00 0.00 0.00 0.00 0.00 0.01 0.01 0.02 0.03 0.04 0.06 0.08 0.10 0.12 0.15 0.19 0.23 0.28 0.33 0.37 0.42
0.11 0.07 0.04 0.04 0.02 0.01 0.01 0.01 0.01 0.01 0.00 0.00 0.01 0.01 0.00 0.00 0.00 0.00 0.00 0.00 0.00 0.00 0.00 0.00 0.00 0.00 0.01 0.01 0.02 0.02 0.02 0.03 0.05 0.07 0.09 0.12 0.15 0.20 0.24 0.29 0.33 0.37 0.41
0.17 0.13 0.09 0.07 0.06 0.04 0.04 0.03 0.02 0.02 0.01 0.01 0.02 0.02 0.01 0.00 0.00 0.00 0.00 0.00 0.00 0.00 0.00 0.00 0.00 0.01 0.01 0.01 0.01 0.01 0.01 0.01 0.02 0.06 0.11 0.15 0.19 0.23 0.27 0.32 0.36 0.40 0.45
0.26 0.21 0.18 0.17 0.15 0.12 0.09 0.08 0.07 0.05 0.04 0.04 0.03 0.05 0.05 0.03 0.02 0.01 0.00 0.00 0.00 0.00 0.00 0.00 0.00 0.00 0.00 0.00 0.01 0.01 0.01 0.02 0.03 0.05 0.10 0.16 0.21 0.26 0.31 0.36 0.41 0.47 0.51
0.27 0.27 0.26 0.24 0.21 0.19 0.17 0.18 0.18 0.16 0.13 0.09 0.08 0.07 0.08 0.08 0.08 0.05 0.02 0.01 0.01 0.01 0.00 0.00 0.00 0.00 0.00 0.01 0.01 0.01 0.02 0.04 0.06 0.07 0.10 0.17 0.25 0.34 0.42 0.48 0.55 0.60 0.65
0.22 0.25 0.27 0.26 0.24 0.24 0.26 0.28 0.26 0.26 0.24 0.20 0.17 0.17 0.15 0.12 0.11 0.11 0.07 0.03 0.03 0.02 0.02 0.02 0.02 0.01 0.01 0.01 0.01 0.02 0.04 0.06 0.09 0.12 0.17 0.26 0.37 0.47 0.58 0.67 0.75 0.80 0.83
0.16 0.18 0.22 0.24 0.27 0.29 0.31 0.33 0.33 0.34 0.33 0.32 0.27 0.24 0.24 0.22 0.19 0.20 0.18 0.12 0.10 0.08 0.08 0.07 0.07 0.06 0.05 0.05 0.04 0.04 0.05 0.05 0.08 0.11 0.18 0.30 0.40 0.49 0.57 0.67 0.76 0.84 0.90
0.13 0.15 0.19 0.23 0.27 0.31 0.36 0.38 0.37 0.36 0.37 0.36 0.34 0.30 0.28 0.26 0.25 0.28 0.32 0.28 0.24 0.19 0.17 0.16 0.13 0.11 0.10 0.09 0.07 0.06 0.05 0.04 0.06 0.08 0.12 0.23 0.29 0.30 0.35 0.43 0.56 0.69 0.82
0.15 0.18 0.21 0.23 0.26 0.29 0.31 0.33 0.34 0.34 0.34 0.34 0.33 0.30 0.28 0.25 0.24 0.26 0.32 0.37 0.37 0.30 0.25 0.22 0.20 0.18 0.16 0.14 0.11 0.09 0.06 0.05 0.05 0.06 0.09 0.13 0.16 0.17 0.20 0.27 0.37 0.48 0.60
0.12 0.14 0.16 0.19 0.21 0.22 0.23 0.26 0.27 0.26 0.27 0.27 0.27 0.26 0.25 0.22 0.21 0.22 0.25 0.34 0.44 0.41 0.32 0.25 0.24 0.22 0.20 0.17 0.14 0.12 0.08 0.07 0.07 0.09 0.11 0.12 0.13 0.15 0.19 0.23 0.30 0.39 0.49
0.09 0.10 0.12 0.14 0.16 0.16 0.17 0.17 0.18 0.17 0.18 0.19 0.19 0.19 0.19 0.19 0.19 0.21 0.24 0.30 0.38 0.43 0.38 0.27 0.23 0.22 0.21 0.17 0.13 0.12 0.10 0.12 0.13 0.13 0.13 0.15 0.18 0.23 0.26 0.28 0.31 0.36 0.46
0.06 0.07 0.09 0.11 0.11 0.11 0.10 0.11 0.12 0.12 0.14 0.14 0.15 0.16 0.17 0.17 0.19 0.20 0.22 0.25 0.27 0.30 0.30 0.22 0.17 0.15 0.15 0.14 0.12 0.11 0.09 0.08 0.07 0.10 0.13 0.15 0.18 0.23 0.28 0.32 0.34 0.37 0.44
0.05 0.06 0.06 0.06 0.06 0.06 0.07 0.08 0.09 0.10 0.12 0.14 0.15 0.16 0.18 0.20 0.23 0.24 0.25 0.25 0.24 0.24 0.25 0.22 0.15 0.11 0.09 0.09 0.07 0.06 0.06 0.07 0.06 0.07 0.11 0.14 0.17 0.22 0.27 0.30 0.33 0.36 0.40
0.05 0.05 0.04 0.04 0.05 0.05 0.06 0.07 0.09 0.10 0.13 0.15 0.17 0.20 0.22 0.24 0.25 0.25 0.23 0.21 0.19 0.17 0.18 0.20 0.12 0.07 0.05 0.04 0.05 0.04 0.04 0.05 0.06 0.07 0.09 0.11 0.16 0.21 0.26 0.29 0.30 0.31 0.32
0.06 0.06 0.05 0.05 0.06 0.08 0.09 0.11 0.13 0.16 0.18 0.20 0.23 0.25 0.27 0.26 0.24 0.21 0.17 0.15 0.14 0.13 0.12 0.15 0.15 0.11 0.07 0.04 0.06 0.06 0.05 0.05 0.05 0.05 0.06 0.07 0.09 0.12 0.14 0.17 0.20 0.22 0.24
0.06 0.07 0.08 0.09 0.11 0.12 0.16 0.19 0.22 0.26 0.29 0.31 0.30 0.28 0.24 0.21 0.17 0.14 0.13 0.12 0.12 0.14 0.19 0.24 0.21 0.15 0.09 0.08 0.07 0.07 0.09 0.07 0.05 0.04 0.04 0.03 0.04 0.05 0.06 0.09 0.15 0.20 0.26
0.10 0.12 0.15 0.19 0.24 0.29 0.35 0.35 0.31 0.31 0.30 0.27 0.23 0.20 0.17 0.14 0.11 0.10 0.10 0.11 0.16 0.24 0.31 0.33 0.26 0.18 0.08 0.05 0.07 0.12 0.18 0.21 0.15 0.04 0.06 0.04 0.03 0.04 0.07 0.12 0.19 0.26 0.33
0.22 0.26 0.30 0.35 0.38 0.40 0.37 0.29 0.24 0.21 0.21 0.19 0.15 0.11 0.08 0.06 0.05 0.04 0.04 0.10 0.15 0.20 0.23 0.22 0.18 0.10 0.10 0.12 0.23 0.32 0.29 0.27 0.17 0.04 0.06 0.07 0.04 0.06 0.08 0.14 0.25 0.29 0.36
0.37 0.40 0.41 0.43 0.42 0.40 0.34 0.25 0.19 0.15 0.12 0.10 0.08 0.06 0.04 0.04 0.04 0.07 0.13 0.17 0.12 0.07 0.06 0.06 0.09 0.13 0.16 0.16 0.23 0.33 0.29 0.22 0.10 0.04 0.07 0.15 0.10 0.10 0.09 0.13 0.23 0.25 0.29
0.46 0.45 0.42 0.38 0.31 0.25 0.20 0.14 0.10 0.07 0.05 0.04 0.03 0.03 0.05 0.04 0.06 0.18 0.26 0.22 0.10 0.03 0.02 0.07 0.12 0.12 0.10 0.09 0.11 0.27 0.38 0.39 0.25 0.07 0.06 0.12 0.10 0.11 0.15 0.17 0.22 0.26 0.27
0.35 0.31 0.26 0.22 0.17 0.13 0.09 0.05 0.04 0.03 0.02 0.02 0.02 0.02 0.03 0.05 0.13 0.26 0.24 0.19 0.10 0.06 0.09 0.06 0.03 0.01 0.01 0.02 0.08 0.23 0.57 0.84 0.58 0.29 0.09 0.22 0.24 0.30 0.42 0.22 0.21 0.24 0.25

GEFSMA_prec_meanprecacc_072.txt.gz
Total_Precipitation_Accumulation
0.00 0.00 0.00 0.00 0.00 0.00 0.00 0.00 0.00 0.00 0.00 0.00 0.00 0.00 0.00 0.00 0.00 0.00 0.00 0.00 0.00 0.00 0.00 0.00 0.01 0.02 0.04 0.06 0.08 0.09 0.10 0.10 0.10 0.10 0.10 0.11 0.11 0.12 0.13 0.14 0.14 0.15 0.15
0.00 0.00 0.00 0.00 0.00 0.00 0.00 0.00 0.00 0.00 0.00 0.00 0.00 0.00 0.00 0.00 0.00 0.00 0.00 0.00 0.00 0.00 0.00 0.00 0.01 0.02 0.04 0.05 0.07 0.08 0.09 0.09 0.09 0.10 0.11 0.12 0.12 0.13 0.14 0.15 0.16 0.16 0.17
0.00 0.00 0.00 0.00 0.00 0.00 0.00 0.00 0.00 0.00 0.00 0.00 0.00 0.00 0.00 0.00 0.00 0.00 0.00 0.00 0.00 0.00 0.00 0.00 0.01 0.01 0.02 0.02 0.04 0.06 0.07 0.09 0.10 0.11 0.12 0.14 0.15 0.15 0.16 0.17 0.18 0.20 0.20
0.00 0.00 0.00 0.00 0.00 0.00 0.00 0.00 0.00 0.00 0.00 0.00 0.00 0.00 0.00 0.00 0.00 0.00 0.00 0.00 0.00 0.00 0.00 0.00 0.01 0.01 0.01 0.01 0.02 0.03 0.05 0.07 0.09 0.11 0.13 0.15 0.17 0.18 0.20 0.22 0.24 0.25 0.26
0.02 0.01 0.01 0.01 0.01 0.01 0.00 0.00 0.00 0.00 0.00 0.00 0.00 0.00 0.00 0.00 0.00 0.00 0.00 0.00 0.00 0.00 0.00 0.00 0.00 0.00 0.00 0.01 0.01 0.02 0.04 0.06 0.08 0.10 0.12 0.14 0.17 0.20 0.24 0.28 0.31 0.33 0.35
0.05 0.04 0.02 0.02 0.02 0.02 0.02 0.01 0.01 0.01 0.01 0.01 0.01 0.00 0.00 0.00 0.00 0.00 0.00 0.00 0.00 0.00 0.00 0.00 0.00 0.00 0.00 0.01 0.01 0.02 0.03 0.04 0.06 0.08 0.10 0.12 0.15 0.19 0.23 0.28 0.33 0.37 0.42
0.14 0.09 0.07 0.06 0.05 0.04 0.03 0.04 0.03 0.03 0.02 0.02 0.02 0.01 0.01 0.01 0.01 0.00 0.01 0.00 0.00 0.00 0.00 0.01 0.01 0.01 0.01 0.02 0.02 0.02 0.02 0.03 0.05 0.07 0.09 0.12 0.15 0.20 0.24 0.29 0.33 0.37 0.42
0.20 0.16 0.12 0.10 0.09 0.08 0.07 0.06 0.06 0.05 0.04 0.05 0.06 0.06 0.03 0.01 0.01 0.01 0.01 0.01 0.01 0.01 0.01 0.01 0.02 0.02 0.02 0.02 0.02 0.01 0.02 0.02 0.03 0.07 0.11 0.15 0.19 0.23 0.27 0.32 0.36 0.41 0.45
0.28 0.23 0.20 0.20 0.18 0.16 0.14 0.14 0.14 0.12 0.10 0.10 0.11 0.12 0.09 0.05 0.03 0.02 0.02 0.03 0.03 0.03 0.02 0.02 0.03 0.03 0.03 0.03 0.03 0.02 0.03 0.04 0.04 0.06 0.12 0.18 0.22 0.26 0.31 0.36 0.41 0.47 0.51
0.29 0.29 0.27 0.26 0.24 0.23 0.21 0.24 0.26 0.25 0.22 0.17 0.16 0.16 0.16 0.14 0.13 0.08 0.04 0.04 0.05 0.04 0.04 0.04 0.04 0.04 0.05 0.05 0.05 0.06 0.08 0.10 0.12 0.12 0.15 0.20 0.27 0.35 0.43 0.49 0.55 0.61 0.66
0.22 0.26 0.28 0.28 0.26 0.27 0.30 0.33 0.33 0.35 0.33 0.30 0.27 0.27 0.27 0.22 0.18 0.18 0.11 0.06 0.07 0.07 0.08 0.08 0.08 0.09 0.09 0.10 0.11 0.13 0.16 0.18 0.20 0.22 0.26 0.33 0.42 0.51 0.60 0.69 0.78 0.83 0.86
0.17 0.19 0.23 0.25 0.28 0.32 0.34 0.38 0.40 0.43 0.45 0.44 0.40 0.36 0.36 0.34 0.29 0.31 0.28 0.20 0.18 0.17 0.18 0.18 0.19 0.20 0.19 0.19 0.20 0.22 0.23 0.23 0.25 0.27 0.31 0.41 0.50 0.57 0.64 0.73 0.82 0.89 0.94
0.13 0.15 0.19 0.24 0.29 0.33 0.38 0.42 0.43 0.43 0.48 0.49 0.47 0.44 0.42 0.40 0.40 0.44 0.48 0.43 0.38 0.33 0.33 0.34 0.32 0.31 0.30 0.28 0.27 0.28 0.25 0.25 0.25 0.26 0.28 0.38 0.44 0.43 0.46 0.52 0.63 0.75 0.86
0.15 0.19 0.21 0.24 0.27 0.31 0.34 0.37 0.38 0.39 0.42 0.43 0.44 0.44 0.42 0.40 0.40 0.43 0.50 0.58 0.58 0.50 0.45 0.44 0.43 0.42 0.39 0.36 0.32 0.32 0.26 0.27 0.26 0.26 0.27 0.29 0.30 0.27 0.28 0.33 0.42 0.51 0.62
0.12 0.14 0.16 0.19 0.21 0.23 0.25 0.27 0.29 0.29 0.31 0.33 0.34 0.35 0.35 0.34 0.34 0.36 0.42 0.54 0.68 0.66 0.55 0.48 0.48 0.47 0.45 0.41 0.38 0.33 0.25 0.26 0.25 0.25 0.27 0.26 0.24 0.24 0.25 0.27 0.32 0.41 0.50
0.09 0.10 0.12 0.14 0.16 0.17 0.17 0.18 0.19 0.19 0.21 0.22 0.23 0.25 0.26 0.27 0.29 0.33 0.38 0.45 0.56 0.65 0.60 0.46 0.40 0.40 0.41 0.37 0.34 0.29 0.24 0.27 0.26 0.25 0.24 0.24 0.26 0.28 0.30 0.31 0.32 0.37 0.46
0.06 0.07 0.09 0.11 0.11 0.11 0.11 0.12 0.12 0.13 0.15 0.16 0.17 0.19 0.22 0.23 0.26 0.28 0.32 0.37 0.42 0.48 0.50 0.40 0.33 0.30 0.29 0.27 0.25 0.22 0.19 0.17 0.15 0.17 0.20 0.20 0.22 0.26 0.30 0.33 0.35 0.38 0.44
0.05 0.06 0.06 0.06 0.06 0.06 0.07 0.08 0.09 0.11 0.12 0.14 0.16 0.18 0.21 0.23 0.27 0.29 0.31 0.32 0.33 0.33 0.36 0.33 0.25 0.21 0.19 0.17 0.15 0.13 0.12 0.12 0.10 0.10 0.14 0.16 0.19 0.23 0.28 0.30 0.33 0.37 0.41
0.05 0.05 0.04 0.04 0.05 0.05 0.06 0.07 0.09 0.11 0.13 0.16 0.19 0.23 0.25 0.26 0.29 0.29 0.27 0.26 0.24 0.23 0.24 0.27 0.20 0.14 0.11 0.09 0.09 0.07 0.07 0.08 0.07 0.08 0.10 0.12 0.17 0.22 0.26 0.29 0.31 0.31 0.32
0.06 0.06 0.05 0.05 0.06 0.08 0.09 0.11 0.13 0.16 0.19 0.21 0.24 0.27 0.29 0.29 0.28 0.25 0.21 0.19 0.19 0.18 0.17 0.20 0.20 0.16 0.12 0.07 0.09 0.09 0.07 0.06 0.06 0.05 0.06 0.07 0.10 0.13 0.14 0.17 0.21 0.22 0.24
0.06 0.07 0.08 0.09 0.11 0.12 0.16 0.19 0.22 0.26 0.29 0.32 0.32 0.30 0.27 0.24 0.20 0.16 0.15 0.15 0.14 0.16 0.22 0.27 0.24 0.18 0.12 0.10 0.09 0.08 0.10 0.08 0.05 0.04 0.04 0.03 0.04 0.05 0.06 0.09 0.15 0.20 0.26
0.10 0.12 0.15 0.19 0.25 0.29 0.36 0.35 0.31 0.31 0.30 0.27 0.24 0.21 0.19 0.17 0.14 0.13 0.13 0.13 0.18 0.25 0.32 0.34 0.28 0.19 0.09 0.06 0.08 0.13 0.18 0.22 0.15 0.04 0.06 0.04 0.03 0.04 0.07 0.12 0.19 0.26 0.33
0.22 0.26 0.30 0.35 0.38 0.40 0.37 0.29 0.24 0.21 0.22 0.21 0.17 0.13 0.10 0.08 0.07 0.05 0.06 0.11 0.16 0.21 0.24 0.23 0.18 0.11 0.10 0.12 0.23 0.32 0.29 0.27 0.17 0.04 0.06 0.07 0.04 0.06 0.08 0.14 0.25 0.29 0.36
0.37 0.40 0.41 0.43 0.42 0.40 0.34 0.25 0.19 0.15 0.13 0.10 0.08 0.06 0.05 0.04 0.04 0.07 0.13 0.18 0.12 0.08 0.07 0.07 0.10 0.13 0.16 0.16 0.23 0.33 0.30 0.22 0.10 0.04 0.07 0.15 0.10 0.10 0.09 0.13 0.23 0.25 0.29
0.46 0.45 0.42 0.38 0.31 0.25 0.20 0.14 0.10 0.07 0.05 0.04 0.03 0.03 0.05 0.05 0.06 0.19 0.27 0.23 0.10 0.03 0.02 0.07 0.12 0.12 0.10 0.09 0.11 0.27 0.38 0.40 0.25 0.07 0.06 0.12 0.10 0.11 0.15 0.17 0.22 0.26 0.27
0.35 0.31 0.26 0.22 0.17 0.13 0.09 0.05 0.04 0.03 0.03 0.02 0.03 0.03 0.03 0.05 0.14 0.26 0.24 0.19 0.10 0.06 0.09 0.06 0.03 0.01 0.01 0.02 0.08 0.23 0.57 0.84 0.58 0.29 0.09 0.22 0.24 0.30 0.42 0.22 0.21 0.24 0.25

GEFSMA_prec_meanprecacc_078.txt.gz
Total_Precipitation_Accumulation
0.00 0.00 0.00 0.00 0.00 0.00 0.00 0.00 0.00 0.00 0.00 0.00 0.00 0.00 0.00 0.00 0.00 0.00 0.00 0.00 0.00 0.00 0.00 0.01 0.01 0.03 0.04 0.06 0.08 0.09 0.10 0.10 0.10 0.10 0.10 0.11 0.11 0.12 0.13 0.14 0.14 0.15 0.15
0.00 0.00 0.00 0.00 0.00 0.00 0.00 0.00 0.00 0.00 0.00 0.00 0.00 0.00 0.00 0.00 0.00 0.00 0.00 0.00 0.00 0.00 0.00 0.00 0.01 0.03 0.04 0.06 0.07 0.08 0.09 0.09 0.09 0.10 0.11 0.12 0.12 0.13 0.14 0.15 0.16 0.16 0.17
0.00 0.00 0.00 0.00 0.00 0.00 0.00 0.00 0.00 0.00 0.00 0.00 0.00 0.00 0.00 0.00 0.00 0.00 0.00 0.00 0.00 0.00 0.00 0.01 0.02 0.02 0.03 0.04 0.05 0.07 0.08 0.09 0.10 0.11 0.12 0.14 0.15 0.15 0.16 0.17 0.18 0.20 0.20
0.00 0.00 0.00 0.00 0.00 0.00 0.00 0.00 0.00 0.00 0.00 0.00 0.00 0.00 0.00 0.00 0.00 0.00 0.00 0.00 0.00 0.00 0.00 0.01 0.01 0.02 0.02 0.03 0.04 0.05 0.07 0.08 0.10 0.11 0.13 0.15 0.17 0.18 0.20 0.22 0.24 0.25 0.26
0.02 0.02 0.01 0.01 0.01 0.01 0.01 0.00 0.00 0.00 0.00 0.00 0.00 0.00 0.00 0.00 0.00 0.00 0.00 0.00 0.00 0.00 0.00 0.01 0.01 0.01 0.02 0.03 0.03 0.05 0.07 0.08 0.09 0.10 0.12 0.14 0.17 0.20 0.24 0.28 0.31 0.33 0.35
0.06 0.05 0.03 0.02 0.03 0.02 0.02 0.02 0.02 0.02 0.02 0.02 0.02 0.01 0.01 0.01 0.01 0.00 0.00 0.01 0.01 0.01 0.01 0.01 0.01 0.01 0.02 0.03 0.04 0.05 0.07 0.09 0.10 0.10 0.12 0.13 0.16 0.19 0.23 0.28 0.33 0.37 0.42
0.15 0.10 0.08 0.07 0.07 0.05 0.05 0.05 0.05 0.04 0.03 0.04 0.03 0.02 0.01 0.01 0.01 0.01 0.01 0.02 0.01 0.02 0.02 0.02 0.02 0.02 0.03 0.04 0.05 0.05 0.06 0.09 0.12 0.13 0.14 0.15 0.18 0.22 0.26 0.30 0.33 0.37 0.42
0.22 0.17 0.14 0.12 0.12 0.10 0.08 0.08 0.07 0.07 0.06 0.08 0.08 0.09 0.05 0.02 0.01 0.02 0.02 0.03 0.02 0.03 0.03 0.04 0.04 0.04 0.05 0.05 0.05 0.06 0.07 0.09 0.13 0.19 0.22 0.24 0.26 0.29 0.33 0.37 0.40 0.43 0.47
0.30 0.25 0.22 0.21 0.20 0.18 0.16 0.16 0.16 0.15 0.14 0.13 0.14 0.17 0.12 0.06 0.04 0.02 0.03 0.04 0.05 0.04 0.05 0.05 0.05 0.06 0.07 0.07 0.08 0.10 0.13 0.15 0.18 0.23 0.29 0.32 0.34 0.37 0.42 0.48 0.52 0.55 0.57
0.31 0.30 0.29 0.28 0.26 0.25 0.23 0.27 0.30 0.29 0.25 0.19 0.18 0.17 0.18 0.16 0.15 0.09 0.05 0.05 0.06 0.05 0.06 0.06 0.07 0.08 0.09 0.11 0.13 0.16 0.22 0.25 0.29 0.33 0.37 0.41 0.46 0.52 0.58 0.63 0.69 0.73 0.75
0.24 0.28 0.30 0.30 0.27 0.29 0.32 0.35 0.35 0.37 0.36 0.32 0.29 0.29 0.29 0.24 0.21 0.21 0.13 0.07 0.08 0.09 0.09 0.10 0.11 0.12 0.14 0.17 0.20 0.25 0.32 0.36 0.43 0.48 0.53 0.60 0.66 0.73 0.80 0.87 0.94 0.97 0.98
0.17 0.19 0.24 0.26 0.29 0.33 0.36 0.39 0.42 0.45 0.47 0.47 0.43 0.39 0.39 0.36 0.31 0.34 0.31 0.22 0.20 0.19 0.20 0.22 0.24 0.26 0.28 0.29 0.31 0.37 0.42 0.47 0.54 0.59 0.64 0.73 0.80 0.85 0.90 0.97 1.03 1.08 1.12
0.13 0.16 0.20 0.24 0.29 0.33 0.39 0.43 0.44 0.44 0.49 0.50 0.49 0.46 0.45 0.42 0.42 0.47 0.51 0.46 0.40 0.35 0.36 0.38 0.38 0.39 0.39 0.40 0.42 0.47 0.47 0.49 0.52 0.57 0.62 0.75 0.80 0.75 0.72 0.74 0.83 0.93 1.02
0.15 0.19 0.21 0.24 0.27 0.31 0.34 0.37 0.38 0.39 0.42 0.44 0.44 0.45 0.43 0.41 0.41 0.45 0.53 0.62 0.62 0.53 0.49 0.49 0.49 0.50 0.50 0.48 0.48 0.51 0.45 0.50 0.52 0.55 0.59 0.64 0.62 0.52 0.47 0.49 0.56 0.64 0.74
0.12 0.14 0.16 0.19 0.21 0.23 0.25 0.28 0.29 0.29 0.31 0.33 0.34 0.36 0.36 0.35 0.35 0.37 0.44 0.56 0.72 0.71 0.59 0.52 0.53 0.54 0.54 0.52 0.52 0.47 0.41 0.45 0.47 0.47 0.51 0.52 0.47 0.43 0.40 0.40 0.44 0.50 0.58
0.09 0.10 0.12 0.14 0.16 0.17 0.17 0.18 0.19 0.19 0.21 0.22 0.23 0.25 0.27 0.27 0.29 0.33 0.38 0.47 0.59 0.69 0.64 0.50 0.44 0.45 0.47 0.45 0.44 0.39 0.35 0.41 0.41 0.40 0.41 0.41 0.42 0.43 0.42 0.41 0.41 0.44 0.52
0.06 0.07 0.09 0.11 0.11 0.11 0.11 0.12 0.12 0.13 0.15 0.16 0.17 0.19 0.22 0.23 0.26 0.29 0.33 0.38 0.43 0.50 0.53 0.43 0.37 0.35 0.35 0.33 0.32 0.29 0.25 0.25 0.24 0.27 0.30 0.30 0.31 0.35 0.38 0.40 0.40 0.42 0.48
0.05 0.06 0.06 0.06 0.06 0.06 0.07 0.08 0.09 0.11 0.12 0.15 0.16 0.18 0.21 0.23 0.27 0.29 0.31 0.32 0.33 0.34 0.38 0.35 0.28 0.23 0.21 0.20 0.19 0.17 0.15 0.15 0.14 0.15 0.19 0.21 0.24 0.28 0.32 0.34 0.36 0.39 0.43
0.05 0.05 0.04 0.04 0.05 0.05 0.06 0.07 0.09 0.11 0.13 0.16 0.19 0.23 0.25 0.26 0.29 0.29 0.28 0.26 0.24 0.23 0.25 0.28 0.21 0.15 0.13 0.11 0.11 0.10 0.09 0.09 0.09 0.10 0.12 0.14 0.19 0.24 0.28 0.30 0.32 0.32 0.33
0.06 0.06 0.05 0.05 0.06 0.08 0.09 0.11 0.13 0.16 0.19 0.21 0.24 0.27 0.29 0.29 0.28 0.25 0.21 0.19 0.19 0.18 0.18 0.20 0.21 0.16 0.13 0.08 0.10 0.10 0.09 0.07 0.07 0.06 0.07 0.08 0.11 0.13 0.15 0.18 0.21 0.23 0.24
0.06 0.07 0.08 0.09 0.11 0.12 0.16 0.19 0.22 0.26 0.29 0.32 0.32 0.30 0.27 0.24 0.20 0.16 0.15 0.15 0.15 0.17 0.23 0.27 0.25 0.19 0.13 0.11 0.10 0.09 0.11 0.09 0.05 0.04 0.04 0.03 0.04 0.05 0.06 0.09 0.15 0.20 0.26
0.10 0.12 0.15 0.19 0.25 0.29 0.36 0.35 0.31 0.31 0.30 0.27 0.24 0.21 0.19 0.17 0.14 0.13 0.13 0.13 0.18 0.26 0.33 0.35 0.29 0.20 0.10 0.06 0.08 0.13 0.18 0.22 0.15 0.04 0.06 0.04 0.03 0.04 0.07 0.12 0.19 0.26 0.33
0.22 0.26 0.30 0.35 0.38 0.40 0.38 0.29 0.24 0.21 0.22 0.21 0.17 0.13 0.10 0.08 0.07 0.05 0.06 0.11 0.16 0.21 0.24 0.23 0.18 0.11 0.10 0.12 0.23 0.33 0.29 0.28 0.17 0.05 0.06 0.07 0.04 0.06 0.08 0.14 0.25 0.29 0.36
0.37 0.40 0.41 0.43 0.42 0.40 0.34 0.25 0.19 0.15 0.13 0.10 0.08 0.06 0.05 0.04 0.04 0.07 0.13 0.18 0.12 0.08 0.07 0.07 0.10 0.13 0.16 0.16 0.23 0.33 0.30 0.22 0.10 0.04 0.07 0.15 0.10 0.10 0.09 0.13 0.23 0.25 0.29
0.46 0.45 0.42 0.38 0.31 0.25 0.20 0.14 0.10 0.07 0.05 0.04 0.03 0.03 0.05 0.05 0.06 0.19 0.27 0.23 0.10 0.03 0.02 0.07 0.12 0.12 0.10 0.09 0.11 0.27 0.38 0.40 0.25 0.07 0.06 0.12 0.10 0.11 0.15 0.17 0.22 0.26 0.27
0.35 0.31 0.26 0.22 0.17 0.13 0.09 0.05 0.04 0.03 0.03 0.02 0.03 0.03 0.03 0.05 0.14 0.26 0.24 0.19 0.10 0.06 0.09 0.06 0.03 0.01 0.01 0.02 0.08 0.23 0.57 0.84 0.58 0.29 0.09 0.22 0.24 0.30 0.42 0.22 0.21 0.24 0.25

GEFSMA_prec_meanprecacc_084.txt.gz
Total_Precipitation_Accumulation
0.00 0.00 0.00 0.00 0.00 0.00 0.00 0.00 0.00 0.00 0.00 0.00 0.00 0.00 0.00 0.00 0.00 0.00 0.00 0.00 0.00 0.00 0.01 0.01 0.02 0.03 0.05 0.07 0.09 0.10 0.10 0.10 0.10 0.10 0.10 0.11 0.11 0.12 0.13 0.14 0.14 0.15 0.16
0.00 0.00 0.00 0.00 0.00 0.00 0.00 0.00 0.00 0.00 0.00 0.00 0.00 0.00 0.00 0.00 0.00 0.00 0.00 0.00 0.00 0.00 0.00 0.01 0.02 0.04 0.06 0.08 0.10 0.10 0.11 0.10 0.10 0.10 0.11 0.12 0.12 0.13 0.14 0.15 0.16 0.16 0.17
0.00 0.00 0.00 0.00 0.00 0.00 0.00 0.00 0.00 0.00 0.00 0.00 0.00 0.00 0.00 0.00 0.00 0.00 0.00 0.00 0.00 0.00 0.00 0.01 0.02 0.03 0.05 0.06 0.09 0.11 0.12 0.12 0.11 0.12 0.13 0.14 0.15 0.15 0.16 0.17 0.18 0.20 0.20
0.00 0.00 0.00 0.00 0.00 0.00 0.00 0.00 0.00 0.00 0.00 0.00 0.00 0.00 0.00 0.00 0.00 0.00 0.00 0.00 0.00 0.00 0.00 0.01 0.02 0.03 0.04 0.05 0.07 0.10 0.13 0.13 0.13 0.13 0.15 0.16 0.18 0.19 0.21 0.22 0.24 0.25 0.26
0.02 0.02 0.01 0.01 0.01 0.01 0.01 0.01 0.01 0.01 0.01 0.01 0.00 0.00 0.01 0.01 0.00 0.00 0.00 0.00 0.00 0.00 0.01 0.01 0.01 0.02 0.03 0.04 0.06 0.09 0.14 0.15 0.15 0.14 0.15 0.17 0.18 0.21 0.25 0.29 0.32 0.34 0.35
0.07 0.05 0.03 0.03 0.03 0.03 0.03 0.03 0.02 0.02 0.02 0.02 0.02 0.01 0.01 0.01 0.01 0.01 0.01 0.01 0.01 0.01 0.01 0.01 0.02 0.02 0.02 0.04 0.06 0.08 0.13 0.16 0.17 0.17 0.17 0.18 0.19 0.22 0.26 0.30 0.35 0.38 0.43
0.16 0.11 0.08 0.08 0.08 0.06 0.05 0.05 0.05 0.04 0.03 0.04 0.04 0.03 0.01 0.01 0.01 0.01 0.02 0.02 0.02 0.02 0.02 0.03 0.03 0.03 0.03 0.04 0.06 0.07 0.10 0.16 0.21 0.22 0.22 0.22 0.24 0.27 0.30 0.34 0.37 0.40 0.45
0.24 0.19 0.15 0.13 0.12 0.11 0.09 0.08 0.08 0.08 0.07 0.08 0.09 0.10 0.06 0.02 0.01 0.02 0.02 0.03 0.03 0.03 0.03 0.04 0.04 0.05 0.05 0.05 0.06 0.07 0.09 0.14 0.22 0.31 0.35 0.34 0.35 0.37 0.40 0.44 0.47 0.50 0.54
0.31 0.26 0.23 0.22 0.21 0.19 0.17 0.17 0.17 0.16 0.15 0.14 0.15 0.18 0.14 0.07 0.04 0.03 0.03 0.04 0.05 0.04 0.05 0.05 0.06 0.06 0.07 0.08 0.09 0.11 0.15 0.18 0.25 0.36 0.46 0.50 0.50 0.51 0.55 0.59 0.63 0.67 0.68
0.31 0.31 0.30 0.29 0.27 0.26 0.24 0.28 0.32 0.31 0.27 0.20 0.19 0.18 0.20 0.18 0.17 0.11 0.05 0.05 0.06 0.05 0.06 0.06 0.07 0.08 0.09 0.11 0.13 0.18 0.24 0.29 0.36 0.45 0.55 0.66 0.72 0.77 0.82 0.86 0.89 0.92 0.91
0.24 0.28 0.31 0.31 0.28 0.30 0.33 0.37 0.37 0.39 0.37 0.33 0.30 0.30 0.30 0.26 0.23 0.23 0.14 0.08 0.08 0.09 0.09 0.10 0.11 0.13 0.15 0.18 0.21 0.27 0.35 0.41 0.50 0.59 0.71 0.86 0.99 1.08 1.13 1.17 1.20 1.20 1.18
0.17 0.20 0.24 0.27 0.30 0.33 0.36 0.40 0.42 0.46 0.47 0.47 0.44 0.40 0.40 0.37 0.32 0.35 0.33 0.23 0.21 0.19 0.20 0.22 0.24 0.26 0.28 0.30 0.32 0.39 0.45 0.52 0.61 0.70 0.81 0.98 1.12 1.21 1.28 1.34 1.37 1.38 1.38
0.13 0.16 0.20 0.24 0.29 0.34 0.39 0.43 0.44 0.45 0.49 0.51 0.50 0.47 0.46 0.43 0.43 0.48 0.52 0.47 0.40 0.35 0.36 0.38 0.38 0.39 0.39 0.41 0.42 0.49 0.49 0.54 0.58 0.66 0.76 0.95 1.04 1.01 1.01 1.07 1.16 1.23 1.29
0.15 0.19 0.21 0.24 0.27 0.31 0.34 0.37 0.38 0.39 0.42 0.44 0.45 0.46 0.44 0.42 0.42 0.45 0.53 0.63 0.63 0.54 0.49 0.49 0.49 0.50 0.50 0.48 0.48 0.52 0.47 0.53 0.56 0.60 0.68 0.76 0.76 0.68 0.65 0.69 0.79 0.88 0.97
0.12 0.14 0.16 0.19 0.21 0.23 0.25 0.28 0.29 0.29 0.31 0.33 0.34 0.36 0.36 0.35 0.35 0.38 0.44 0.57 0.73 0.72 0.59 0.52 0.53 0.54 0.54 0.52 0.52 0.48 0.41 0.47 0.50 0.51 0.55 0.58 0.56 0.54 0.54 0.56 0.61 0.69 0.77
0.09 0.10 0.12 0.14 0.16 0.17 0.17 0.18 0.19 0.19 0.21 0.22 0.24 0.25 0.27 0.27 0.29 0.33 0.38 0.47 0.59 0.69 0.64 0.50 0.44 0.45 0.47 0.45 0.45 0.39 0.35 0.42 0.43 0.43 0.44 0.46 0.47 0.50 0.52 0.52 0.53 0.57 0.66
0.06 0.07 0.09 0.11 0.11 0.11 0.11 0.12 0.12 0.13 0.15 0.16 0.17 0.19 0.22 0.23 0.26 0.29 0.33 0.38 0.43 0.50 0.53 0.44 0.37 0.35 0.35 0.33 0.32 0.29 0.25 0.25 0.25 0.29 0.32 0.33 0.35 0.39 0.44 0.47 0.49 0.51 0.55
0.05 0.06 0.06 0.06 0.06 0.06 0.07 0.08 0.09 0.11 0.13 0.15 0.16 0.18 0.21 0.23 0.27 0.29 0.31 0.33 0.33 0.34 0.38 0.36 0.28 0.24 0.21 0.20 0.19 0.17 0.15 0.15 0.14 0.16 0.21 0.23 0.26 0.31 0.35 0.38 0.40 0.43 0.46
0.05 0.05 0.04 0.04 0.05 0.05 0.06 0.07 0.09 0.11 0.13 0.16 0.19 0.23 0.25 0.27 0.29 0.29 0.28 0.26 0.24 0.23 0.25 0.28 0.21 0.15 0.13 0.11 0.11 0.10 0.09 0.09 0.09 0.11 0.13 0.15 0.20 0.25 0.29 0.32 0.33 0.34 0.34
0.06 0.06 0.05 0.05 0.06 0.08 0.09 0.11 0.13 0.16 0.19 0.21 0.24 0.27 0.29 0.29 0.28 0.25 0.21 0.19 0.19 0.18 0.18 0.20 0.21 0.16 0.13 0.09 0.10 0.10 0.09 0.07 0.07 0.06 0.07 0.08 0.11 0.14 0.16 0.18 0.22 0.23 0.25
0.06 0.07 0.08 0.09 0.11 0.12 0.16 0.19 0.22 0.26 0.29 0.32 0.32 0.30 0.27 0.24 0.20 0.17 0.15 0.15 0.15 0.17 0.23 0.27 0.25 0.19 0.13 0.11 0.10 0.09 0.11 0.09 0.06 0.04 0.04 0.03 0.04 0.05 0.06 0.09 0.15 0.20 0.26
0.10 0.12 0.15 0.19 0.25 0.29 0.36 0.35 0.32 0.31 0.30 0.27 0.24 0.21 0.19 0.17 0.14 0.13 0.13 0.13 0.18 0.26 0.33 0.35 0.29 0.20 0.10 0.06 0.08 0.13 0.18 0.22 0.15 0.04 0.06 0.04 0.03 0.04 0.07 0.12 0.19 0.26 0.33
0.22 0.26 0.30 0.35 0.38 0.40 0.38 0.29 0.24 0.21 0.22 0.21 0.17 0.13 0.10 0.08 0.07 0.05 0.06 0.11 0.16 0.21 0.24 0.23 0.18 0.11 0.10 0.12 0.23 0.33 0.29 0.28 0.17 0.05 0.06 0.07 0.04 0.06 0.08 0.14 0.25 0.29 0.36
0.37 0.40 0.41 0.43 0.42 0.40 0.34 0.25 0.19 0.15 0.13 0.10 0.08 0.06 0.05 0.04 0.04 0.07 0.13 0.18 0.12 0.08 0.07 0.07 0.10 0.13 0.16 0.16 0.23 0.33 0.30 0.22 0.10 0.04 0.07 0.15 0.10 0.10 0.09 0.13 0.23 0.26 0.29
0.46 0.45 0.42 0.38 0.31 0.25 0.20 0.14 0.10 0.07 0.05 0.04 0.03 0.03 0.05 0.05 0.06 0.19 0.27 0.23 0.10 0.03 0.02 0.07 0.12 0.12 0.10 0.09 0.11 0.27 0.38 0.40 0.25 0.07 0.06 0.12 0.10 0.11 0.15 0.17 0.22 0.26 0.27
0.35 0.31 0.26 0.22 0.17 0.13 0.09 0.06 0.04 0.03 0.03 0.02 0.03 0.03 0.03 0.05 0.14 0.26 0.24 0.19 0.10 0.06 0.09 0.06 0.03 0.01 0.01 0.02 0.08 0.23 0.57 0.84 0.59 0.29 0.09 0.22 0.24 0.30 0.42 0.22 0.21 0.24 0.25

GEFSMA_prec_meanprecacc_090.txt.gz
Total_Precipitation_Accumulation
0.00 0.00 0.00 0.00 0.00 0.00 0.00 0.00 0.00 0.00 0.00 0.00 0.00 0.00 0.00 0.00 0.00 0.00 0.00 0.00 0.00 0.00 0.01 0.01 0.02 0.03 0.06 0.08 0.10 0.12 0.12 0.12 0.12 0.11 0.11 0.11 0.12 0.12 0.13 0.14 0.14 0.15 0.16
0.00 0.00 0.00 0.00 0.00 0.00 0.00 0.00 0.00 0.00 0.00 0.00 0.00 0.00 0.00 0.00 0.00 0.00 0.00 0.00 0.00 0.00 0.00 0.01 0.02 0.04 0.07 0.09 0.12 0.13 0.13 0.13 0.13 0.13 0.13 0.13 0.13 0.13 0.14 0.15 0.16 0.16 0.17
0.00 0.00 0.00 0.00 0.00 0.00 0.00 0.00 0.00 0.00 0.00 0.00 0.00 0.00 0.00 0.00 0.00 0.00 0.00 0.00 0.00 0.00 0.00 0.01 0.02 0.04 0.05 0.08 0.12 0.15 0.16 0.16 0.15 0.14 0.15 0.16 0.16 0.16 0.17 0.18 0.19 0.20 0.21
0.01 0.00 0.01 0.01 0.01 0.01 0.01 0.01 0.01 0.01 0.00 0.00 0.00 0.00 0.00 0.00 0.00 0.00 0.00 0.00 0.00 0.00 0.00 0.01 0.02 0.03 0.05 0.07 0.10 0.15 0.18 0.18 0.17 0.16 0.17 0.18 0.19 0.21 0.22 0.24 0.25 0.25 0.26
0.02 0.02 0.02 0.02 0.03 0.03 0.02 0.02 0.02 0.02 0.01 0.01 0.01 0.01 0.01 0.01 0.01 0.00 0.00 0.00 0.01 0.01 0.01 0.01 0.01 0.02 0.03 0.05 0.08 0.14 0.21 0.23 0.21 0.19 0.18 0.20 0.21 0.24 0.27 0.31 0.34 0.35 0.36
0.08 0.06 0.04 0.05 0.06 0.05 0.05 0.05 0.04 0.04 0.03 0.04 0.04 0.02 0.01 0.01 0.01 0.01 0.01 0.01 0.01 0.01 0.01 0.01 0.02 0.02 0.02 0.04 0.06 0.10 0.18 0.24 0.26 0.24 0.23 0.23 0.24 0.26 0.29 0.33 0.37 0.40 0.44
0.19 0.13 0.11 0.11 0.10 0.08 0.08 0.08 0.08 0.07 0.05 0.05 0.05 0.03 0.01 0.01 0.01 0.01 0.02 0.02 0.02 0.02 0.02 0.03 0.03 0.03 0.03 0.05 0.06 0.08 0.12 0.21 0.28 0.30 0.30 0.29 0.29 0.32 0.35 0.39 0.42 0.44 0.48
0.27 0.21 0.18 0.16 0.14 0.12 0.11 0.11 0.11 0.09 0.08 0.09 0.10 0.11 0.06 0.02 0.01 0.02 0.02 0.03 0.03 0.03 0.03 0.04 0.05 0.05 0.05 0.06 0.06 0.07 0.10 0.16 0.26 0.37 0.44 0.44 0.43 0.44 0.48 0.53 0.56 0.60 0.63
0.33 0.28 0.25 0.24 0.23 0.22 0.19 0.18 0.19 0.17 0.16 0.16 0.17 0.21 0.16 0.07 0.04 0.03 0.03 0.04 0.05 0.04 0.05 0.05 0.06 0.06 0.07 0.08 0.09 0.11 0.15 0.19 0.27 0.40 0.53 0.59 0.60 0.62 0.67 0.72 0.78 0.83 0.84
0.34 0.34 0.33 0.31 0.29 0.29 0.26 0.30 0.34 0.33 0.30 0.23 0.21 0.20 0.22 0.20 0.19 0.12 0.06 0.06 0.06 0.06 0.06 0.06 0.07 0.08 0.09 0.11 0.14 0.18 0.24 0.29 0.37 0.48 0.60 0.72 0.81 0.90 0.98 1.03 1.08 1.11 1.08
0.27 0.30 0.33 0.32 0.30 0.31 0.34 0.38 0.39 0.41 0.39 0.35 0.33 0.32 0.32 0.27 0.25 0.25 0.16 0.08 0.09 0.09 0.10 0.10 0.11 0.13 0.15 0.18 0.22 0.27 0.36 0.42 0.51 0.62 0.75 0.92 1.06 1.19 1.29 1.36 1.42 1.44 1.41
0.19 0.21 0.26 0.28 0.31 0.34 0.37 0.40 0.43 0.47 0.49 0.49 0.46 0.42 0.42 0.39 0.33 0.37 0.34 0.24 0.22 0.20 0.20 0.22 0.24 0.26 0.28 0.30 0.32 0.39 0.45 0.52 0.62 0.73 0.86 1.05 1.19 1.28 1.36 1.48 1.59 1.64 1.66
0.14 0.17 0.21 0.25 0.30 0.34 0.40 0.44 0.45 0.45 0.50 0.52 0.51 0.48 0.47 0.44 0.44 0.49 0.54 0.48 0.42 0.36 0.37 0.38 0.38 0.39 0.39 0.41 0.42 0.49 0.49 0.54 0.59 0.67 0.80 1.01 1.08 1.04 1.04 1.13 1.26 1.38 1.47
0.15 0.19 0.22 0.24 0.27 0.31 0.34 0.37 0.38 0.39 0.43 0.44 0.45 0.46 0.45 0.42 0.43 0.46 0.55 0.64 0.64 0.55 0.50 0.49 0.49 0.50 0.50 0.48 0.48 0.52 0.47 0.54 0.57 0.61 0.70 0.79 0.77 0.69 0.67 0.72 0.83 0.95 1.07
0.13 0.14 0.17 0.19 0.21 0.23 0.25 0.28 0.29 0.29 0.31 0.33 0.34 0.36 0.36 0.35 0.36 0.38 0.44 0.58 0.74 0.73 0.60 0.52 0.53 0.54 0.54 0.52 0.52 0.48 0.42 0.48 0.50 0.52 0.56 0.59 0.57 0.55 0.56 0.59 0.66 0.76 0.84
0.09 0.11 0.12 0.14 0.16 0.17 0.17 0.18 0.19 0.19 0.21 0.22 0.24 0.25 0.27 0.28 0.30 0.34 0.39 0.47 0.60 0.70 0.65 0.50 0.44 0.45 0.47 0.45 0.45 0.39 0.35 0.42 0.43 0.43 0.44 0.46 0.48 0.51 0.54 0.55 0.58 0.63 0.71
0.06 0.07 0.09 0.11 0.11 0.11 0.11 0.12 0.12 0.13 0.15 0.16 0.17 0.20 0.22 0.24 0.26 0.29 0.33 0.38 0.44 0.51 0.53 0.44 0.37 0.35 0.35 0.33 0.32 0.29 0.25 0.25 0.25 0.29 0.32 0.34 0.35 0.40 0.44 0.49 0.51 0.54 0.60
0.05 0.06 0.06 0.06 0.06 0.06 0.07 0.08 0.09 0.11 0.13 0.15 0.16 0.19 0.21 0.23 0.27 0.29 0.31 0.33 0.33 0.35 0.38 0.36 0.28 0.24 0.21 0.20 0.19 0.17 0.15 0.15 0.14 0.17 0.21 0.23 0.26 0.31 0.35 0.38 0.40 0.45 0.49
0.05 0.05 0.04 0.04 0.05 0.05 0.06 0.07 0.09 0.11 0.13 0.16 0.19 0.23 0.25 0.27 0.29 0.29 0.28 0.26 0.25 0.23 0.25 0.28 0.21 0.15 0.13 0.11 0.11 0.10 0.09 0.09 0.09 0.11 0.13 0.15 0.20 0.25 0.29 0.32 0.34 0.34 0.35
0.06 0.06 0.05 0.05 0.06 0.08 0.09 0.11 0.13 0.16 0.19 0.21 0.24 0.27 0.29 0.29 0.28 0.25 0.22 0.19 0.19 0.18 0.18 0.20 0.21 0.17 0.13 0.09 0.10 0.10 0.09 0.07 0.07 0.06 0.07 0.08 0.11 0.14 0.16 0.18 0.22 0.23 0.25
0.06 0.07 0.08 0.09 0.11 0.12 0.16 0.19 0.22 0.26 0.30 0.32 0.32 0.30 0.27 0.25 0.20 0.17 0.16 0.15 0.15 0.17 0.23 0.27 0.25 0.19 0.13 0.11 0.10 0.09 0.11 0.09 0.06 0.04 0.04 0.03 0.04 0.05 0.06 0.09 0.15 0.20 0.26
0.10 0.12 0.15 0.19 0.25 0.29 0.36 0.35 0.32 0.31 0.30 0.27 0.24 0.21 0.19 0.17 0.14 0.13 0.13 0.13 0.18 0.26 0.33 0.35 0.29 0.20 0.10 0.06 0.08 0.13 0.18 0.22 0.15 0.04 0.06 0.04 0.03 0.04 0.07 0.12 0.19 0.26 0.33
0.22 0.26 0.30 0.35 0.38 0.40 0.38 0.29 0.24 0.21 0.22 0.21 0.17 0.13 0.10 0.08 0.07 0.05 0.06 0.11 0.16 0.21 0.24 0.23 0.18 0.11 0.10 0.12 0.23 0.33 0.29 0.28 0.17 0.05 0.06 0.07 0.04 0.06 0.08 0.14 0.25 0.29 0.36
0.37 0.40 0.41 0.43 0.42 0.40 0.34 0.25 0.19 0.15 0.13 0.10 0.08 0.06 0.05 0.04 0.04 0.07 0.13 0.18 0.12 0.08 0.07 0.07 0.10 0.13 0.16 0.16 0.23 0.33 0.30 0.22 0.10 0.04 0.07 0.15 0.10 0.10 0.09 0.13 0.23 0.26 0.29
0.46 0.45 0.42 0.38 0.31 0.25 0.20 0.14 0.10 0.07 0.05 0.04 0.03 0.03 0.05 0.05 0.06 0.19 0.27 0.23 0.10 0.03 0.02 0.07 0.12 0.12 0.10 0.09 0.11 0.27 0.38 0.40 0.25 0.07 0.06 0.12 0.10 0.11 0.15 0.17 0.22 0.26 0.27
0.35 0.31 0.26 0.22 0.17 0.13 0.09 0.06 0.04 0.03 0.03 0.02 0.03 0.03 0.03 0.05 0.14 0.26 0.24 0.19 0.10 0.06 0.09 0.06 0.03 0.01 0.01 0.02 0.08 0.23 0.57 0.84 0.59 0.29 0.09 0.22 0.24 0.30 0.42 0.22 0.21 0.24 0.25

GEFSMA_prec_meanprecacc_096.txt.gz
Total_Precipitation_Accumulation
0.00 0.00 0.00 0.00 0.00 0.00 0.00 0.00 0.00 0.00 0.00 0.00 0.00 0.00 0.00 0.00 0.00 0.00 0.00 0.00 0.00 0.00 0.01 0.01 0.02 0.04 0.06 0.09 0.12 0.13 0.14 0.14 0.13 0.13 0.13 0.13 0.13 0.13 0.14 0.15 0.15 0.15 0.16
0.00 0.00 0.00 0.00 0.00 0.00 0.00 0.00 0.00 0.00 0.00 0.00 0.00 0.00 0.00 0.00 0.00 0.00 0.00 0.00 0.00 0.00 0.00 0.01 0.02 0.05 0.08 0.12 0.15 0.16 0.16 0.16 0.15 0.15 0.15 0.15 0.14 0.14 0.15 0.16 0.16 0.17 0.18
0.00 0.00 0.00 0.00 0.00 0.00 0.00 0.00 0.00 0.00 0.00 0.00 0.00 0.00 0.00 0.00 0.00 0.00 0.00 0.00 0.00 0.00 0.00 0.01 0.03 0.05 0.08 0.11 0.16 0.19 0.21 0.20 0.18 0.17 0.17 0.18 0.17 0.17 0.18 0.19 0.20 0.21 0.22
0.01 0.01 0.01 0.01 0.01 0.01 0.01 0.01 0.01 0.01 0.00 0.01 0.00 0.01 0.01 0.00 0.00 0.00 0.00 0.00 0.00 0.00 0.00 0.01 0.02 0.04 0.06 0.09 0.14 0.20 0.23 0.23 0.22 0.20 0.21 0.22 0.23 0.23 0.24 0.26 0.26 0.26 0.27
0.03 0.03 0.02 0.02 0.03 0.03 0.03 0.03 0.02 0.02 0.02 0.01 0.01 0.01 0.01 0.01 0.01 0.01 0.00 0.00 0.01 0.01 0.01 0.01 0.02 0.02 0.04 0.06 0.10 0.17 0.26 0.30 0.27 0.25 0.23 0.24 0.25 0.28 0.31 0.34 0.36 0.37 0.38
0.09 0.07 0.06 0.06 0.06 0.06 0.06 0.06 0.05 0.04 0.04 0.04 0.04 0.02 0.01 0.01 0.01 0.01 0.01 0.01 0.01 0.01 0.01 0.02 0.02 0.02 0.02 0.05 0.07 0.12 0.22 0.30 0.33 0.30 0.28 0.27 0.28 0.30 0.34 0.38 0.41 0.44 0.48
0.22 0.15 0.13 0.13 0.12 0.10 0.09 0.09 0.09 0.07 0.06 0.06 0.05 0.03 0.01 0.01 0.01 0.01 0.02 0.02 0.02 0.02 0.02 0.03 0.03 0.03 0.04 0.05 0.07 0.08 0.14 0.23 0.33 0.36 0.35 0.34 0.35 0.37 0.41 0.44 0.48 0.50 0.54
0.31 0.25 0.21 0.19 0.16 0.14 0.13 0.12 0.13 0.11 0.09 0.10 0.11 0.12 0.06 0.02 0.01 0.02 0.02 0.03 0.03 0.03 0.03 0.04 0.05 0.05 0.05 0.06 0.06 0.07 0.10 0.16 0.27 0.40 0.48 0.49 0.49 0.51 0.56 0.61 0.64 0.67 0.71
0.40 0.34 0.30 0.28 0.26 0.25 0.21 0.21 0.21 0.20 0.18 0.18 0.18 0.22 0.17 0.08 0.04 0.03 0.03 0.04 0.05 0.04 0.05 0.05 0.06 0.06 0.07 0.08 0.09 0.12 0.15 0.19 0.28 0.42 0.57 0.63 0.65 0.68 0.76 0.83 0.89 0.94 0.93
0.42 0.42 0.40 0.38 0.35 0.34 0.31 0.33 0.37 0.36 0.32 0.25 0.23 0.22 0.24 0.22 0.21 0.13 0.06 0.06 0.06 0.06 0.06 0.06 0.07 0.08 0.09 0.11 0.14 0.18 0.24 0.30 0.38 0.49 0.63 0.74 0.83 0.94 1.04 1.12 1.19 1.23 1.19
0.37 0.39 0.40 0.37 0.33 0.34 0.37 0.40 0.41 0.43 0.41 0.37 0.35 0.34 0.34 0.29 0.27 0.27 0.16 0.08 0.09 0.09 0.10 0.10 0.11 0.13 0.15 0.18 0.22 0.28 0.36 0.42 0.52 0.63 0.77 0.94 1.10 1.23 1.35 1.43 1.50 1.52 1.50
0.27 0.28 0.33 0.34 0.35 0.37 0.40 0.43 0.46 0.49 0.51 0.51 0.48 0.43 0.44 0.40 0.35 0.38 0.36 0.25 0.22 0.20 0.20 0.22 0.24 0.27 0.28 0.30 0.32 0.40 0.45 0.52 0.63 0.74 0.88 1.08 1.22 1.32 1.43 1.55 1.64 1.69 1.71
0.18 0.21 0.26 0.29 0.33 0.37 0.42 0.45 0.47 0.47 0.52 0.54 0.53 0.50 0.48 0.46 0.45 0.50 0.56 0.49 0.42 0.36 0.37 0.38 0.38 0.39 0.40 0.41 0.43 0.49 0.50 0.54 0.60 0.69 0.83 1.04 1.11 1.07 1.08 1.18 1.30 1.41 1.51
0.19 0.23 0.25 0.27 0.30 0.33 0.36 0.39 0.39 0.41 0.44 0.46 0.47 0.47 0.45 0.43 0.43 0.47 0.55 0.65 0.65 0.55 0.50 0.49 0.49 0.50 0.50 0.49 0.49 0.53 0.47 0.54 0.57 0.62 0.71 0.80 0.78 0.71 0.69 0.75 0.86 0.97 1.09
0.16 0.17 0.19 0.21 0.23 0.25 0.27 0.29 0.30 0.30 0.32 0.34 0.35 0.36 0.37 0.35 0.36 0.38 0.45 0.58 0.75 0.74 0.60 0.52 0.53 0.54 0.54 0.52 0.53 0.48 0.42 0.48 0.51 0.52 0.57 0.59 0.57 0.56 0.56 0.60 0.68 0.78 0.87
0.11 0.13 0.14 0.16 0.17 0.17 0.18 0.19 0.19 0.20 0.21 0.22 0.24 0.26 0.27 0.28 0.30 0.34 0.39 0.47 0.60 0.71 0.65 0.50 0.44 0.45 0.47 0.45 0.45 0.39 0.35 0.42 0.43 0.43 0.45 0.46 0.48 0.51 0.54 0.56 0.59 0.65 0.75
0.08 0.09 0.11 0.11 0.11 0.11 0.11 0.12 0.13 0.13 0.15 0.16 0.17 0.20 0.22 0.24 0.26 0.29 0.33 0.38 0.44 0.51 0.54 0.44 0.37 0.35 0.35 0.34 0.32 0.29 0.26 0.25 0.25 0.30 0.33 0.34 0.36 0.40 0.44 0.49 0.52 0.56 0.62
0.06 0.06 0.06 0.06 0.06 0.06 0.07 0.08 0.09 0.11 0.13 0.15 0.16 0.19 0.21 0.23 0.27 0.29 0.31 0.33 0.34 0.35 0.38 0.36 0.28 0.24 0.22 0.21 0.19 0.18 0.16 0.16 0.14 0.17 0.21 0.24 0.26 0.31 0.36 0.38 0.41 0.45 0.50
0.06 0.05 0.04 0.04 0.05 0.05 0.06 0.07 0.09 0.11 0.13 0.16 0.19 0.23 0.25 0.27 0.29 0.29 0.28 0.26 0.25 0.24 0.25 0.28 0.21 0.16 0.13 0.12 0.12 0.10 0.09 0.10 0.09 0.11 0.13 0.15 0.20 0.25 0.29 0.32 0.34 0.34 0.36
0.06 0.06 0.05 0.05 0.06 0.08 0.09 0.11 0.13 0.16 0.19 0.21 0.24 0.27 0.29 0.29 0.28 0.25 0.22 0.20 0.19 0.18 0.18 0.21 0.22 0.17 0.13 0.09 0.10 0.10 0.09 0.07 0.07 0.06 0.07 0.08 0.11 0.14 0.16 0.19 0.22 0.23 0.25
0.06 0.07 0.08 0.09 0.11 0.12 0.16 0.19 0.22 0.26 0.30 0.32 0.32 0.30 0.27 0.25 0.20 0.17 0.16 0.15 0.15 0.17 0.23 0.28 0.25 0.19 0.13 0.11 0.10 0.10 0.11 0.09 0.06 0.04 0.04 0.03 0.04 0.05 0.06 0.09 0.15 0.20 0.26
0.10 0.12 0.15 0.19 0.25 0.29 0.36 0.35 0.32 0.31 0.30 0.27 0.24 0.21 0.19 0.17 0.14 0.13 0.13 0.14 0.18 0.26 0.33 0.35 0.29 0.20 0.10 0.07 0.08 0.13 0.18 0.22 0.15 0.04 0.06 0.04 0.03 0.04 0.07 0.12 0.19 0.26 0.33
0.22 0.26 0.30 0.35 0.38 0.40 0.38 0.29 0.24 0.21 0.22 0.21 0.17 0.13 0.10 0.08 0.07 0.05 0.06 0.11 0.16 0.21 0.24 0.23 0.19 0.11 0.10 0.12 0.23 0.33 0.29 0.28 0.17 0.05 0.06 0.07 0.04 0.06 0.08 0.14 0.25 0.29 0.36
0.37 0.40 0.41 0.43 0.42 0.40 0.34 0.25 0.19 0.15 0.13 0.10 0.08 0.06 0.05 0.04 0.04 0.07 0.13 0.18 0.12 0.08 0.07 0.07 0.10 0.13 0.16 0.16 0.23 0.33 0.30 0.22 0.10 0.04 0.07 0.15 0.10 0.10 0.09 0.13 0.23 0.26 0.29
0.46 0.45 0.42 0.38 0.31 0.25 0.20 0.14 0.10 0.07 0.05 0.04 0.03 0.03 0.05 0.05 0.06 0.19 0.27 0.23 0.10 0.03 0.02 0.07 0.12 0.12 0.10 0.09 0.11 0.27 0.38 0.40 0.25 0.07 0.06 0.12 0.10 0.11 0.15 0.17 0.22 0.26 0.27
0.35 0.31 0.26 0.22 0.17 0.13 0.09 0.06 0.04 0.03 0.03 0.02 0.03 0.03 0.03 0.05 0.14 0.26 0.24 0.19 0.10 0.06 0.09 0.06 0.03 0.01 0.01 0.02 0.08 0.23 0.57 0.84 0.59 0.29 0.09 0.22 0.24 0.30 0.42 0.22 0.21 0.24 0.25

GEFSMA_prec_meanprecacc_102.txt.gz
Total_Precipitation_Accumulation
0.00 0.00 0.00 0.00 0.00 0.00 0.00 0.00 0.00 0.00 0.00 0.00 0.00 0.00 0.00 0.00 0.00 0.00 0.00 0.00 0.00 0.00 0.01 0.02 0.03 0.05 0.09 0.12 0.14 0.16 0.16 0.16 0.15 0.15 0.14 0.14 0.14 0.15 0.15 0.16 0.16 0.16 0.17
0.00 0.00 0.00 0.00 0.00 0.00 0.00 0.00 0.00 0.00 0.00 0.00 0.00 0.00 0.00 0.00 0.00 0.00 0.00 0.00 0.00 0.00 0.00 0.01 0.04 0.07 0.11 0.15 0.19 0.20 0.20 0.19 0.18 0.18 0.18 0.17 0.16 0.16 0.16 0.17 0.18 0.18 0.19
0.01 0.00 0.00 0.00 0.01 0.01 0.00 0.00 0.00 0.00 0.00 0.00 0.00 0.00 0.00 0.00 0.00 0.00 0.00 0.00 0.00 0.00 0.00 0.01 0.04 0.07 0.10 0.14 0.20 0.24 0.25 0.24 0.21 0.19 0.20 0.20 0.20 0.20 0.20 0.21 0.22 0.23 0.23
0.02 0.01 0.01 0.01 0.01 0.01 0.01 0.01 0.01 0.01 0.00 0.01 0.01 0.01 0.01 0.00 0.00 0.01 0.00 0.00 0.00 0.00 0.01 0.01 0.03 0.05 0.08 0.12 0.17 0.23 0.28 0.28 0.25 0.23 0.24 0.25 0.25 0.26 0.28 0.29 0.29 0.29 0.30
0.05 0.04 0.04 0.04 0.04 0.04 0.03 0.03 0.03 0.02 0.02 0.02 0.01 0.01 0.01 0.01 0.01 0.01 0.01 0.01 0.01 0.01 0.01 0.01 0.02 0.02 0.05 0.07 0.12 0.20 0.31 0.35 0.33 0.30 0.28 0.28 0.30 0.32 0.35 0.38 0.40 0.41 0.42
0.13 0.09 0.08 0.09 0.09 0.09 0.08 0.08 0.07 0.06 0.04 0.05 0.04 0.02 0.02 0.01 0.01 0.01 0.01 0.01 0.01 0.01 0.01 0.02 0.02 0.02 0.03 0.05 0.08 0.14 0.24 0.35 0.38 0.36 0.34 0.33 0.33 0.35 0.39 0.43 0.45 0.48 0.52
0.27 0.20 0.17 0.16 0.16 0.13 0.12 0.11 0.10 0.08 0.07 0.07 0.06 0.04 0.02 0.02 0.02 0.02 0.02 0.02 0.02 0.02 0.02 0.03 0.03 0.03 0.04 0.05 0.07 0.09 0.15 0.26 0.36 0.40 0.40 0.40 0.40 0.44 0.48 0.52 0.54 0.55 0.58
0.40 0.34 0.29 0.25 0.22 0.19 0.16 0.15 0.15 0.13 0.12 0.13 0.14 0.16 0.11 0.05 0.03 0.03 0.03 0.03 0.03 0.03 0.03 0.04 0.05 0.05 0.06 0.06 0.07 0.08 0.10 0.17 0.29 0.43 0.52 0.53 0.54 0.56 0.62 0.69 0.73 0.76 0.78
0.52 0.45 0.39 0.38 0.36 0.32 0.27 0.26 0.26 0.25 0.24 0.24 0.24 0.28 0.21 0.10 0.06 0.04 0.03 0.04 0.05 0.05 0.05 0.05 0.06 0.06 0.07 0.08 0.09 0.12 0.16 0.19 0.29 0.44 0.60 0.67 0.69 0.74 0.82 0.90 0.97 1.04 1.03
0.54 0.53 0.51 0.49 0.45 0.43 0.39 0.41 0.45 0.43 0.38 0.29 0.26 0.25 0.27 0.24 0.23 0.14 0.06 0.06 0.07 0.06 0.06 0.07 0.07 0.08 0.10 0.11 0.14 0.19 0.25 0.30 0.39 0.50 0.65 0.78 0.88 0.99 1.11 1.19 1.26 1.31 1.27
0.50 0.51 0.52 0.49 0.43 0.43 0.44 0.48 0.48 0.48 0.45 0.41 0.37 0.36 0.36 0.31 0.29 0.29 0.18 0.09 0.09 0.09 0.10 0.10 0.11 0.13 0.15 0.18 0.22 0.28 0.36 0.43 0.53 0.65 0.80 0.97 1.12 1.26 1.40 1.50 1.58 1.60 1.57
0.40 0.41 0.45 0.46 0.46 0.48 0.50 0.52 0.53 0.55 0.56 0.55 0.50 0.46 0.46 0.42 0.37 0.41 0.39 0.27 0.23 0.20 0.20 0.22 0.25 0.27 0.28 0.30 0.33 0.40 0.46 0.53 0.64 0.75 0.90 1.10 1.25 1.35 1.46 1.61 1.72 1.77 1.78
0.30 0.34 0.41 0.44 0.48 0.50 0.55 0.57 0.55 0.53 0.57 0.57 0.56 0.53 0.51 0.48 0.47 0.53 0.58 0.50 0.43 0.36 0.37 0.38 0.38 0.39 0.40 0.41 0.43 0.51 0.51 0.55 0.60 0.70 0.85 1.05 1.12 1.09 1.11 1.23 1.37 1.48 1.56
0.31 0.35 0.37 0.39 0.41 0.46 0.50 0.52 0.51 0.49 0.50 0.51 0.51 0.50 0.47 0.45 0.45 0.48 0.57 0.66 0.66 0.55 0.50 0.49 0.49 0.50 0.50 0.49 0.49 0.53 0.48 0.55 0.58 0.63 0.72 0.81 0.79 0.72 0.70 0.77 0.89 1.01 1.13
0.28 0.30 0.31 0.31 0.32 0.34 0.37 0.40 0.40 0.39 0.38 0.39 0.39 0.39 0.38 0.36 0.37 0.39 0.46 0.59 0.76 0.75 0.60 0.52 0.53 0.54 0.54 0.53 0.53 0.48 0.42 0.49 0.51 0.53 0.57 0.60 0.58 0.56 0.57 0.61 0.70 0.80 0.90
0.22 0.22 0.23 0.23 0.24 0.24 0.25 0.26 0.27 0.26 0.26 0.26 0.26 0.27 0.29 0.29 0.31 0.34 0.40 0.48 0.61 0.72 0.66 0.50 0.44 0.45 0.47 0.45 0.46 0.39 0.36 0.43 0.44 0.44 0.45 0.47 0.48 0.51 0.54 0.56 0.60 0.66 0.77
0.16 0.16 0.16 0.16 0.16 0.16 0.16 0.18 0.19 0.18 0.18 0.18 0.18 0.20 0.23 0.24 0.27 0.29 0.33 0.38 0.44 0.52 0.54 0.44 0.37 0.35 0.35 0.34 0.33 0.30 0.26 0.26 0.26 0.31 0.33 0.34 0.36 0.41 0.45 0.50 0.53 0.57 0.63
0.11 0.11 0.10 0.09 0.09 0.09 0.10 0.11 0.13 0.14 0.15 0.16 0.17 0.19 0.21 0.24 0.27 0.29 0.31 0.33 0.34 0.35 0.38 0.36 0.28 0.24 0.22 0.21 0.20 0.18 0.16 0.16 0.15 0.18 0.22 0.24 0.27 0.32 0.36 0.39 0.41 0.46 0.51
0.12 0.12 0.10 0.08 0.08 0.07 0.07 0.08 0.10 0.12 0.14 0.17 0.20 0.23 0.25 0.27 0.29 0.29 0.28 0.26 0.25 0.24 0.25 0.28 0.22 0.16 0.13 0.12 0.12 0.11 0.10 0.10 0.10 0.12 0.13 0.16 0.21 0.25 0.29 0.33 0.34 0.35 0.36
0.11 0.11 0.10 0.08 0.08 0.09 0.11 0.11 0.13 0.16 0.19 0.22 0.24 0.27 0.29 0.29 0.28 0.25 0.22 0.20 0.19 0.18 0.18 0.21 0.22 0.17 0.13 0.09 0.11 0.11 0.10 0.08 0.08 0.07 0.07 0.09 0.11 0.14 0.16 0.19 0.22 0.24 0.25
0.09 0.10 0.11 0.11 0.12 0.14 0.17 0.20 0.23 0.27 0.30 0.32 0.32 0.30 0.27 0.25 0.20 0.17 0.16 0.15 0.15 0.17 0.23 0.28 0.25 0.19 0.14 0.12 0.11 0.10 0.12 0.09 0.06 0.05 0.05 0.04 0.04 0.05 0.06 0.10 0.15 0.20 0.26
0.12 0.14 0.17 0.21 0.27 0.31 0.38 0.37 0.33 0.32 0.31 0.28 0.24 0.21 0.19 0.17 0.14 0.13 0.13 0.14 0.19 0.26 0.34 0.35 0.29 0.20 0.10 0.07 0.09 0.14 0.19 0.23 0.16 0.05 0.06 0.04 0.03 0.04 0.07 0.12 0.19 0.26 0.33
0.23 0.27 0.31 0.36 0.40 0.42 0.40 0.31 0.25 0.22 0.22 0.21 0.17 0.13 0.10 0.08 0.07 0.05 0.06 0.11 0.17 0.22 0.24 0.23 0.19 0.11 0.11 0.13 0.23 0.33 0.30 0.28 0.18 0.05 0.07 0.07 0.04 0.06 0.08 0.14 0.25 0.29 0.36
0.37 0.40 0.42 0.44 0.44 0.41 0.35 0.26 0.19 0.15 0.13 0.10 0.08 0.06 0.05 0.04 0.04 0.07 0.13 0.18 0.12 0.08 0.07 0.07 0.10 0.13 0.16 0.17 0.23 0.34 0.30 0.22 0.10 0.04 0.07 0.15 0.10 0.10 0.09 0.13 0.23 0.26 0.29
0.47 0.46 0.43 0.38 0.32 0.26 0.21 0.15 0.10 0.07 0.05 0.04 0.03 0.03 0.05 0.05 0.07 0.19 0.27 0.23 0.10 0.03 0.02 0.07 0.12 0.12 0.11 0.09 0.11 0.27 0.38 0.40 0.25 0.07 0.06 0.12 0.10 0.11 0.15 0.17 0.22 0.26 0.27
0.36 0.32 0.27 0.22 0.18 0.13 0.10 0.06 0.05 0.03 0.03 0.02 0.03 0.03 0.04 0.05 0.14 0.26 0.24 0.19 0.10 0.06 0.09 0.06 0.03 0.01 0.01 0.02 0.08 0.23 0.57 0.84 0.59 0.29 0.09 0.22 0.24 0.30 0.42 0.22 0.21 0.24 0.25

GEFSMA_prec_meanprecacc_108.txt.gz
Total_Precipitation_Accumulation
0.00 0.00 0.00 0.00 0.00 0.00 0.00 0.00 0.00 0.00 0.00 0.00 0.00 0.00 0.00 0.00 0.00 0.00 0.00 0.00 0.00 0.01 0.02 0.02 0.04 0.06 0.10 0.15 0.17 0.18 0.18 0.17 0.16 0.15 0.15 0.15 0.15 0.15 0.16 0.16 0.17 0.17 0.17
0.01 0.00 0.00 0.00 0.00 0.01 0.01 0.01 0.01 0.01 0.01 0.00 0.00 0.00 0.00 0.00 0.00 0.00 0.00 0.00 0.00 0.00 0.01 0.02 0.04 0.09 0.13 0.18 0.21 0.23 0.23 0.20 0.18 0.18 0.18 0.18 0.18 0.17 0.17 0.18 0.19 0.19 0.20
0.01 0.01 0.01 0.01 0.01 0.01 0.01 0.01 0.01 0.01 0.00 0.00 0.00 0.00 0.00 0.00 0.00 0.00 0.01 0.00 0.00 0.00 0.01 0.02 0.05 0.09 0.12 0.16 0.22 0.26 0.27 0.26 0.22 0.20 0.20 0.21 0.21 0.22 0.22 0.23 0.24 0.24 0.25
0.03 0.02 0.03 0.02 0.02 0.02 0.02 0.02 0.01 0.01 0.01 0.01 0.01 0.01 0.01 0.01 0.01 0.01 0.00 0.01 0.01 0.01 0.01 0.02 0.03 0.06 0.09 0.13 0.19 0.26 0.31 0.31 0.27 0.25 0.26 0.27 0.27 0.27 0.30 0.31 0.31 0.31 0.31
0.08 0.08 0.07 0.07 0.07 0.06 0.05 0.05 0.04 0.04 0.03 0.03 0.02 0.02 0.02 0.02 0.01 0.01 0.01 0.01 0.01 0.01 0.01 0.01 0.02 0.03 0.05 0.08 0.12 0.22 0.33 0.37 0.35 0.32 0.31 0.31 0.32 0.34 0.37 0.40 0.42 0.43 0.44
0.17 0.14 0.11 0.13 0.13 0.12 0.12 0.12 0.10 0.08 0.06 0.06 0.06 0.03 0.03 0.02 0.02 0.01 0.01 0.01 0.01 0.01 0.02 0.02 0.02 0.02 0.03 0.05 0.08 0.14 0.26 0.37 0.40 0.38 0.36 0.36 0.37 0.40 0.44 0.47 0.48 0.50 0.54
0.34 0.26 0.23 0.22 0.20 0.18 0.17 0.15 0.14 0.12 0.10 0.10 0.09 0.06 0.04 0.03 0.03 0.02 0.02 0.02 0.02 0.02 0.02 0.03 0.03 0.03 0.04 0.05 0.07 0.09 0.16 0.28 0.38 0.42 0.42 0.42 0.43 0.48 0.54 0.59 0.59 0.60 0.62
0.49 0.43 0.37 0.33 0.29 0.26 0.23 0.21 0.21 0.19 0.18 0.18 0.18 0.19 0.12 0.05 0.03 0.03 0.03 0.03 0.03 0.03 0.04 0.05 0.05 0.05 0.06 0.06 0.07 0.08 0.10 0.18 0.31 0.45 0.54 0.56 0.56 0.59 0.65 0.74 0.78 0.82 0.84
0.63 0.55 0.50 0.50 0.47 0.43 0.37 0.36 0.35 0.31 0.28 0.27 0.28 0.31 0.24 0.12 0.07 0.05 0.04 0.05 0.06 0.05 0.05 0.06 0.06 0.07 0.07 0.08 0.09 0.12 0.16 0.20 0.30 0.45 0.62 0.70 0.73 0.77 0.87 0.96 1.02 1.10 1.11
0.67 0.66 0.64 0.61 0.59 0.57 0.52 0.52 0.55 0.51 0.44 0.34 0.30 0.28 0.30 0.27 0.25 0.16 0.07 0.06 0.07 0.06 0.07 0.07 0.07 0.08 0.10 0.12 0.14 0.19 0.25 0.31 0.40 0.52 0.68 0.82 0.91 1.04 1.17 1.25 1.33 1.40 1.35
0.63 0.66 0.68 0.65 0.58 0.56 0.57 0.58 0.57 0.56 0.51 0.45 0.41 0.40 0.40 0.35 0.32 0.31 0.19 0.09 0.09 0.09 0.10 0.11 0.11 0.13 0.15 0.18 0.22 0.28 0.37 0.43 0.54 0.67 0.83 1.00 1.15 1.30 1.45 1.56 1.64 1.68 1.68
0.57 0.57 0.60 0.60 0.60 0.60 0.61 0.63 0.64 0.63 0.62 0.61 0.56 0.51 0.50 0.46 0.39 0.43 0.40 0.27 0.23 0.20 0.20 0.22 0.25 0.27 0.28 0.30 0.33 0.41 0.46 0.54 0.65 0.78 0.94 1.13 1.26 1.37 1.50 1.65 1.77 1.84 1.89
0.47 0.50 0.56 0.59 0.61 0.63 0.68 0.70 0.68 0.63 0.65 0.64 0.62 0.58 0.56 0.52 0.50 0.55 0.60 0.52 0.44 0.37 0.37 0.38 0.38 0.39 0.40 0.41 0.44 0.51 0.51 0.56 0.61 0.71 0.86 1.06 1.13 1.11 1.14 1.27 1.41 1.52 1.64
0.42 0.48 0.51 0.52 0.54 0.58 0.61 0.63 0.61 0.59 0.59 0.59 0.59 0.57 0.53 0.49 0.48 0.51 0.59 0.69 0.68 0.56 0.50 0.49 0.50 0.51 0.50 0.49 0.50 0.54 0.48 0.56 0.58 0.63 0.72 0.81 0.80 0.73 0.71 0.79 0.92 1.03 1.17
0.39 0.40 0.42 0.43 0.43 0.43 0.44 0.47 0.49 0.48 0.47 0.47 0.46 0.46 0.44 0.41 0.40 0.41 0.47 0.61 0.78 0.76 0.62 0.53 0.54 0.54 0.55 0.53 0.54 0.49 0.42 0.49 0.52 0.53 0.57 0.60 0.58 0.57 0.58 0.62 0.71 0.82 0.93
0.32 0.31 0.31 0.32 0.33 0.33 0.33 0.34 0.34 0.35 0.35 0.34 0.33 0.34 0.34 0.34 0.35 0.38 0.43 0.50 0.63 0.73 0.67 0.51 0.44 0.45 0.47 0.45 0.46 0.40 0.36 0.44 0.45 0.44 0.45 0.47 0.49 0.52 0.55 0.57 0.61 0.67 0.78
0.25 0.25 0.26 0.26 0.25 0.24 0.24 0.25 0.26 0.26 0.27 0.26 0.25 0.25 0.27 0.28 0.31 0.33 0.36 0.41 0.47 0.54 0.55 0.45 0.38 0.35 0.35 0.34 0.33 0.30 0.27 0.26 0.26 0.32 0.34 0.35 0.37 0.41 0.46 0.50 0.53 0.58 0.64
0.22 0.20 0.19 0.19 0.19 0.18 0.17 0.18 0.19 0.20 0.21 0.22 0.23 0.24 0.26 0.27 0.30 0.33 0.34 0.35 0.36 0.37 0.40 0.37 0.29 0.25 0.22 0.21 0.20 0.19 0.17 0.17 0.15 0.19 0.23 0.25 0.28 0.33 0.38 0.40 0.43 0.47 0.52
0.22 0.22 0.19 0.16 0.15 0.15 0.14 0.14 0.15 0.16 0.18 0.20 0.23 0.26 0.28 0.29 0.31 0.31 0.30 0.28 0.27 0.25 0.26 0.29 0.22 0.16 0.14 0.12 0.13 0.11 0.10 0.11 0.10 0.13 0.14 0.16 0.21 0.26 0.31 0.35 0.37 0.37 0.37
0.16 0.17 0.18 0.16 0.15 0.15 0.15 0.15 0.17 0.19 0.22 0.25 0.27 0.29 0.31 0.31 0.30 0.27 0.23 0.21 0.20 0.19 0.19 0.22 0.22 0.18 0.14 0.09 0.11 0.11 0.10 0.09 0.08 0.07 0.08 0.09 0.12 0.15 0.17 0.20 0.24 0.26 0.27
0.13 0.13 0.14 0.15 0.15 0.17 0.19 0.23 0.25 0.29 0.33 0.34 0.34 0.32 0.29 0.26 0.22 0.18 0.17 0.16 0.15 0.17 0.23 0.28 0.26 0.20 0.14 0.12 0.11 0.11 0.12 0.10 0.07 0.05 0.05 0.04 0.04 0.05 0.07 0.10 0.16 0.21 0.28
0.15 0.16 0.19 0.23 0.28 0.32 0.40 0.39 0.35 0.34 0.33 0.30 0.27 0.23 0.21 0.19 0.16 0.15 0.14 0.14 0.19 0.26 0.34 0.36 0.29 0.20 0.10 0.07 0.09 0.15 0.20 0.23 0.16 0.05 0.07 0.04 0.03 0.05 0.07 0.12 0.19 0.26 0.33
0.25 0.29 0.33 0.38 0.41 0.43 0.41 0.33 0.28 0.24 0.24 0.23 0.19 0.15 0.11 0.09 0.08 0.06 0.06 0.12 0.17 0.22 0.25 0.24 0.19 0.11 0.11 0.13 0.24 0.34 0.30 0.29 0.18 0.05 0.07 0.07 0.04 0.06 0.08 0.14 0.25 0.29 0.36
0.39 0.42 0.44 0.45 0.45 0.42 0.37 0.27 0.21 0.17 0.14 0.12 0.09 0.07 0.05 0.04 0.04 0.07 0.14 0.18 0.12 0.08 0.07 0.07 0.10 0.14 0.16 0.17 0.24 0.34 0.30 0.23 0.11 0.05 0.08 0.15 0.10 0.10 0.09 0.13 0.23 0.26 0.29
0.49 0.47 0.44 0.40 0.33 0.28 0.23 0.17 0.13 0.08 0.06 0.05 0.04 0.04 0.06 0.05 0.07 0.19 0.27 0.23 0.10 0.03 0.03 0.07 0.13 0.13 0.11 0.10 0.12 0.27 0.38 0.40 0.25 0.07 0.06 0.12 0.10 0.12 0.15 0.17 0.22 0.26 0.27
0.38 0.34 0.29 0.24 0.19 0.15 0.12 0.09 0.07 0.04 0.03 0.03 0.03 0.03 0.04 0.06 0.14 0.27 0.25 0.19 0.10 0.06 0.09 0.06 0.03 0.02 0.01 0.03 0.08 0.24 0.58 0.85 0.59 0.29 0.09 0.22 0.24 0.30 0.42 0.22 0.21 0.24 0.25

GEFSMA_prec_meanprecacc_114.txt.gz
Total_Precipitation_Accumulation
0.02 0.02 0.01 0.01 0.01 0.00 0.00 0.00 0.00 0.00 0.01 0.00 0.00 0.00 0.00 0.00 0.00 0.01 0.00 0.00 0.00 0.01 0.02 0.03 0.04 0.07 0.11 0.17 0.19 0.19 0.19 0.18 0.17 0.16 0.15 0.16 0.15 0.15 0.16 0.17 0.17 0.17 0.18
0.03 0.03 0.02 0.01 0.01 0.01 0.01 0.01 0.01 0.01 0.01 0.00 0.00 0.00 0.00 0.01 0.01 0.01 0.00 0.00 0.00 0.00 0.01 0.02 0.05 0.10 0.15 0.20 0.23 0.24 0.24 0.22 0.19 0.19 0.19 0.18 0.18 0.18 0.18 0.18 0.19 0.20 0.21
0.03 0.03 0.03 0.02 0.02 0.02 0.02 0.02 0.02 0.01 0.01 0.01 0.01 0.01 0.01 0.02 0.02 0.01 0.01 0.01 0.00 0.00 0.01 0.03 0.06 0.10 0.14 0.18 0.23 0.28 0.29 0.28 0.24 0.21 0.21 0.22 0.22 0.22 0.23 0.23 0.24 0.25 0.26
0.06 0.07 0.06 0.05 0.04 0.03 0.03 0.04 0.04 0.03 0.03 0.03 0.02 0.02 0.03 0.03 0.02 0.02 0.01 0.01 0.01 0.02 0.01 0.02 0.04 0.07 0.11 0.15 0.21 0.28 0.33 0.33 0.30 0.27 0.28 0.29 0.29 0.28 0.30 0.31 0.32 0.32 0.33
0.13 0.14 0.12 0.10 0.09 0.08 0.08 0.08 0.07 0.06 0.06 0.06 0.05 0.05 0.05 0.04 0.03 0.02 0.02 0.01 0.01 0.01 0.01 0.01 0.02 0.03 0.06 0.09 0.14 0.23 0.35 0.39 0.36 0.33 0.33 0.33 0.35 0.36 0.39 0.43 0.43 0.44 0.46
0.21 0.18 0.15 0.15 0.15 0.15 0.15 0.15 0.13 0.11 0.10 0.11 0.11 0.07 0.06 0.05 0.03 0.02 0.02 0.02 0.01 0.01 0.02 0.02 0.02 0.02 0.03 0.05 0.09 0.15 0.27 0.38 0.42 0.39 0.38 0.37 0.39 0.43 0.47 0.52 0.52 0.53 0.57
0.36 0.28 0.25 0.24 0.22 0.20 0.19 0.18 0.18 0.16 0.15 0.16 0.15 0.11 0.07 0.05 0.04 0.03 0.03 0.02 0.02 0.02 0.03 0.03 0.03 0.03 0.04 0.06 0.07 0.10 0.17 0.30 0.40 0.43 0.44 0.44 0.45 0.51 0.58 0.64 0.65 0.66 0.68
0.51 0.46 0.40 0.35 0.31 0.29 0.26 0.25 0.27 0.27 0.25 0.26 0.26 0.25 0.16 0.07 0.04 0.03 0.03 0.03 0.03 0.03 0.04 0.05 0.05 0.06 0.06 0.07 0.07 0.09 0.11 0.19 0.32 0.47 0.56 0.58 0.59 0.62 0.69 0.79 0.84 0.89 0.92
0.66 0.59 0.54 0.55 0.52 0.49 0.43 0.43 0.45 0.42 0.38 0.37 0.37 0.40 0.30 0.16 0.09 0.06 0.05 0.06 0.06 0.06 0.05 0.06 0.06 0.07 0.07 0.08 0.09 0.13 0.16 0.20 0.30 0.47 0.65 0.74 0.77 0.81 0.92 1.02 1.09 1.18 1.18
0.74 0.72 0.70 0.68 0.66 0.64 0.59 0.61 0.68 0.65 0.58 0.48 0.42 0.39 0.39 0.33 0.30 0.19 0.08 0.07 0.07 0.06 0.07 0.07 0.07 0.08 0.10 0.12 0.14 0.19 0.25 0.31 0.40 0.54 0.70 0.85 0.95 1.08 1.23 1.32 1.39 1.46 1.42
0.70 0.74 0.76 0.72 0.66 0.64 0.64 0.67 0.68 0.71 0.67 0.61 0.55 0.52 0.50 0.44 0.39 0.37 0.22 0.11 0.10 0.10 0.10 0.11 0.11 0.13 0.15 0.18 0.22 0.29 0.37 0.43 0.54 0.68 0.85 1.03 1.18 1.34 1.50 1.62 1.69 1.74 1.73
0.65 0.64 0.68 0.67 0.67 0.68 0.70 0.73 0.76 0.77 0.77 0.75 0.70 0.63 0.60 0.55 0.47 0.49 0.45 0.30 0.25 0.21 0.21 0.23 0.25 0.27 0.28 0.30 0.33 0.41 0.46 0.54 0.66 0.79 0.97 1.16 1.29 1.40 1.54 1.69 1.81 1.88 1.94
0.59 0.61 0.67 0.69 0.71 0.71 0.76 0.80 0.80 0.76 0.77 0.75 0.73 0.70 0.66 0.61 0.58 0.62 0.67 0.58 0.48 0.40 0.39 0.39 0.39 0.39 0.40 0.42 0.44 0.51 0.52 0.56 0.62 0.73 0.89 1.09 1.15 1.12 1.17 1.30 1.44 1.56 1.69
0.54 0.60 0.63 0.64 0.67 0.70 0.72 0.74 0.74 0.73 0.72 0.71 0.70 0.67 0.63 0.58 0.56 0.59 0.66 0.75 0.73 0.60 0.53 0.51 0.50 0.51 0.51 0.50 0.50 0.55 0.48 0.56 0.59 0.64 0.73 0.82 0.81 0.75 0.74 0.81 0.94 1.06 1.19
0.50 0.50 0.52 0.54 0.54 0.55 0.56 0.59 0.60 0.59 0.58 0.58 0.57 0.56 0.53 0.49 0.47 0.49 0.54 0.67 0.83 0.80 0.64 0.54 0.54 0.55 0.55 0.53 0.54 0.49 0.42 0.50 0.52 0.54 0.58 0.61 0.60 0.60 0.60 0.64 0.72 0.83 0.95
0.41 0.40 0.39 0.40 0.41 0.42 0.44 0.45 0.46 0.46 0.46 0.45 0.45 0.45 0.44 0.43 0.42 0.45 0.49 0.55 0.66 0.76 0.69 0.52 0.45 0.46 0.48 0.46 0.47 0.40 0.37 0.45 0.46 0.46 0.46 0.48 0.50 0.54 0.57 0.58 0.62 0.68 0.81
0.35 0.34 0.35 0.34 0.33 0.33 0.34 0.37 0.39 0.39 0.40 0.38 0.36 0.36 0.38 0.37 0.37 0.38 0.41 0.45 0.50 0.57 0.59 0.47 0.40 0.37 0.37 0.36 0.35 0.32 0.29 0.28 0.29 0.34 0.35 0.36 0.39 0.43 0.48 0.51 0.54 0.59 0.67
0.30 0.28 0.27 0.27 0.27 0.26 0.27 0.29 0.31 0.32 0.33 0.33 0.33 0.33 0.36 0.37 0.38 0.38 0.38 0.39 0.40 0.41 0.43 0.40 0.32 0.27 0.24 0.23 0.22 0.21 0.19 0.19 0.18 0.22 0.24 0.26 0.29 0.34 0.38 0.41 0.44 0.48 0.54
0.31 0.31 0.27 0.24 0.23 0.23 0.24 0.24 0.26 0.27 0.29 0.31 0.33 0.35 0.36 0.37 0.38 0.36 0.34 0.31 0.30 0.28 0.29 0.32 0.25 0.18 0.15 0.14 0.14 0.12 0.12 0.12 0.12 0.14 0.16 0.17 0.22 0.27 0.31 0.36 0.38 0.37 0.38
0.23 0.24 0.27 0.27 0.25 0.25 0.26 0.27 0.29 0.31 0.34 0.36 0.37 0.37 0.37 0.36 0.34 0.30 0.27 0.24 0.23 0.22 0.22 0.24 0.24 0.19 0.15 0.10 0.12 0.13 0.12 0.10 0.09 0.08 0.10 0.10 0.13 0.15 0.17 0.21 0.26 0.28 0.29
0.19 0.21 0.23 0.25 0.28 0.29 0.32 0.35 0.37 0.40 0.44 0.45 0.45 0.42 0.36 0.32 0.26 0.22 0.20 0.19 0.18 0.19 0.25 0.30 0.27 0.21 0.15 0.13 0.12 0.12 0.14 0.12 0.09 0.07 0.06 0.05 0.05 0.06 0.07 0.11 0.17 0.24 0.32
0.20 0.23 0.28 0.34 0.40 0.46 0.55 0.54 0.48 0.47 0.45 0.41 0.37 0.33 0.29 0.26 0.21 0.19 0.17 0.17 0.21 0.28 0.36 0.37 0.31 0.22 0.12 0.09 0.11 0.16 0.21 0.25 0.19 0.07 0.08 0.06 0.04 0.05 0.07 0.12 0.20 0.28 0.37
0.30 0.35 0.40 0.48 0.53 0.57 0.57 0.49 0.42 0.37 0.35 0.32 0.27 0.22 0.18 0.14 0.12 0.09 0.09 0.14 0.18 0.23 0.26 0.25 0.20 0.13 0.12 0.14 0.25 0.36 0.32 0.30 0.20 0.07 0.09 0.09 0.05 0.07 0.09 0.15 0.26 0.30 0.37
0.42 0.46 0.48 0.51 0.53 0.53 0.49 0.41 0.34 0.26 0.21 0.18 0.15 0.11 0.09 0.07 0.07 0.09 0.15 0.19 0.13 0.08 0.07 0.07 0.10 0.14 0.17 0.18 0.25 0.35 0.32 0.24 0.12 0.06 0.09 0.16 0.11 0.11 0.10 0.14 0.24 0.26 0.30
0.51 0.50 0.48 0.44 0.39 0.34 0.31 0.26 0.22 0.15 0.11 0.09 0.08 0.07 0.09 0.08 0.09 0.21 0.28 0.23 0.11 0.03 0.03 0.07 0.13 0.13 0.12 0.11 0.13 0.29 0.39 0.41 0.26 0.08 0.07 0.13 0.10 0.12 0.15 0.17 0.22 0.26 0.28
0.41 0.38 0.33 0.28 0.24 0.20 0.17 0.14 0.13 0.09 0.07 0.06 0.06 0.06 0.07 0.08 0.16 0.28 0.25 0.20 0.11 0.06 0.09 0.07 0.03 0.02 0.02 0.03 0.09 0.25 0.59 0.85 0.60 0.30 0.10 0.23 0.25 0.30 0.43 0.22 0.21 0.24 0.25

GEFSMA_prec_meanprecacc_120.txt.gz
Total_Precipitation_Accumulation
0.04 0.04 0.02 0.02 0.01 0.00 0.00 0.00 0.00 0.00 0.01 0.00 0.00 0.00 0.00 0.00 0.00 0.01 0.01 0.00 0.00 0.01 0.03 0.04 0.06 0.08 0.13 0.19 0.21 0.21 0.20 0.19 0.17 0.16 0.16 0.16 0.16 0.16 0.16 0.17 0.18 0.18 0.19
0.04 0.04 0.03 0.02 0.02 0.02 0.02 0.02 0.02 0.01 0.01 0.01 0.00 0.00 0.01 0.01 0.01 0.01 0.01 0.00 0.00 0.01 0.02 0.04 0.06 0.12 0.17 0.23 0.26 0.26 0.25 0.23 0.21 0.20 0.20 0.19 0.19 0.19 0.18 0.19 0.20 0.20 0.22
0.05 0.04 0.04 0.03 0.04 0.04 0.03 0.03 0.03 0.02 0.02 0.02 0.02 0.02 0.02 0.02 0.02 0.02 0.02 0.02 0.01 0.01 0.01 0.03 0.07 0.11 0.17 0.22 0.27 0.30 0.31 0.29 0.25 0.23 0.22 0.23 0.24 0.24 0.24 0.24 0.25 0.26 0.27
0.09 0.09 0.08 0.07 0.07 0.05 0.05 0.06 0.05 0.05 0.04 0.04 0.04 0.04 0.05 0.05 0.04 0.03 0.03 0.02 0.02 0.03 0.02 0.02 0.04 0.07 0.12 0.18 0.23 0.29 0.34 0.34 0.31 0.28 0.29 0.30 0.30 0.30 0.33 0.34 0.33 0.33 0.34
0.19 0.18 0.15 0.13 0.12 0.12 0.10 0.09 0.08 0.08 0.07 0.07 0.06 0.07 0.07 0.07 0.05 0.04 0.04 0.02 0.02 0.02 0.02 0.02 0.02 0.03 0.06 0.10 0.15 0.24 0.35 0.40 0.38 0.35 0.34 0.34 0.36 0.38 0.42 0.45 0.45 0.46 0.48
0.30 0.26 0.21 0.20 0.19 0.19 0.17 0.16 0.14 0.12 0.11 0.12 0.12 0.09 0.08 0.07 0.05 0.05 0.04 0.03 0.02 0.02 0.02 0.02 0.02 0.02 0.03 0.06 0.10 0.16 0.28 0.39 0.43 0.40 0.39 0.38 0.41 0.44 0.49 0.55 0.56 0.57 0.61
0.41 0.34 0.31 0.30 0.27 0.24 0.21 0.20 0.19 0.18 0.16 0.18 0.18 0.13 0.09 0.07 0.06 0.05 0.05 0.04 0.04 0.03 0.03 0.03 0.04 0.04 0.04 0.06 0.08 0.10 0.17 0.31 0.41 0.44 0.44 0.45 0.47 0.52 0.60 0.66 0.69 0.70 0.73
0.57 0.50 0.43 0.39 0.35 0.32 0.29 0.28 0.31 0.30 0.28 0.29 0.31 0.30 0.20 0.11 0.07 0.06 0.07 0.07 0.06 0.06 0.05 0.05 0.06 0.06 0.06 0.07 0.07 0.09 0.11 0.20 0.33 0.49 0.58 0.59 0.60 0.64 0.71 0.82 0.87 0.93 0.98
0.74 0.64 0.59 0.58 0.56 0.52 0.47 0.47 0.50 0.48 0.45 0.45 0.46 0.50 0.39 0.23 0.15 0.10 0.08 0.09 0.09 0.08 0.07 0.07 0.07 0.07 0.08 0.08 0.10 0.13 0.16 0.20 0.31 0.48 0.67 0.76 0.79 0.83 0.94 1.05 1.12 1.21 1.23
0.84 0.79 0.75 0.72 0.70 0.69 0.64 0.66 0.74 0.73 0.68 0.58 0.52 0.50 0.49 0.42 0.38 0.25 0.14 0.12 0.11 0.09 0.09 0.09 0.08 0.09 0.10 0.12 0.14 0.19 0.26 0.31 0.41 0.55 0.72 0.87 0.98 1.12 1.27 1.36 1.43 1.50 1.46
0.81 0.84 0.83 0.78 0.71 0.69 0.69 0.71 0.73 0.77 0.74 0.70 0.66 0.64 0.62 0.54 0.50 0.47 0.30 0.17 0.15 0.14 0.14 0.14 0.13 0.14 0.16 0.19 0.22 0.29 0.38 0.44 0.56 0.70 0.88 1.06 1.21 1.38 1.54 1.67 1.75 1.79 1.78
0.73 0.73 0.76 0.76 0.75 0.75 0.76 0.80 0.83 0.85 0.86 0.85 0.81 0.75 0.72 0.66 0.58 0.60 0.54 0.38 0.32 0.26 0.25 0.26 0.27 0.28 0.29 0.31 0.34 0.42 0.47 0.55 0.67 0.81 0.99 1.18 1.30 1.42 1.56 1.73 1.87 1.93 1.98
0.67 0.68 0.75 0.77 0.79 0.79 0.83 0.86 0.86 0.82 0.84 0.83 0.82 0.79 0.76 0.71 0.67 0.73 0.77 0.68 0.56 0.46 0.44 0.43 0.41 0.42 0.42 0.43 0.46 0.54 0.55 0.58 0.63 0.74 0.91 1.10 1.16 1.13 1.19 1.34 1.49 1.60 1.73
0.61 0.67 0.70 0.72 0.75 0.78 0.80 0.81 0.80 0.79 0.78 0.78 0.77 0.75 0.71 0.68 0.66 0.69 0.77 0.86 0.83 0.68 0.59 0.56 0.55 0.55 0.54 0.53 0.53 0.57 0.51 0.59 0.60 0.65 0.74 0.83 0.82 0.76 0.76 0.85 0.97 1.10 1.23
0.59 0.58 0.60 0.61 0.62 0.63 0.65 0.68 0.68 0.66 0.65 0.64 0.63 0.64 0.63 0.59 0.57 0.59 0.66 0.80 0.96 0.92 0.74 0.62 0.60 0.59 0.58 0.56 0.57 0.51 0.43 0.51 0.54 0.54 0.59 0.62 0.61 0.61 0.63 0.68 0.75 0.87 0.98
0.52 0.51 0.51 0.50 0.50 0.50 0.52 0.54 0.54 0.55 0.56 0.55 0.54 0.54 0.53 0.53 0.54 0.57 0.61 0.67 0.78 0.88 0.80 0.61 0.52 0.51 0.52 0.49 0.50 0.43 0.38 0.47 0.47 0.47 0.47 0.49 0.51 0.56 0.59 0.62 0.66 0.72 0.84
0.45 0.46 0.48 0.47 0.45 0.44 0.44 0.46 0.48 0.49 0.50 0.48 0.47 0.47 0.48 0.48 0.49 0.50 0.53 0.57 0.62 0.68 0.70 0.58 0.48 0.44 0.43 0.41 0.39 0.35 0.31 0.30 0.30 0.36 0.37 0.37 0.40 0.45 0.51 0.55 0.58 0.62 0.70
0.39 0.37 0.37 0.38 0.38 0.37 0.37 0.39 0.41 0.42 0.44 0.45 0.44 0.44 0.46 0.48 0.51 0.52 0.53 0.52 0.52 0.53 0.55 0.52 0.42 0.36 0.31 0.28 0.25 0.23 0.21 0.20 0.19 0.24 0.27 0.28 0.31 0.37 0.42 0.45 0.48 0.53 0.58
0.40 0.40 0.36 0.32 0.31 0.32 0.33 0.33 0.35 0.37 0.39 0.42 0.44 0.47 0.48 0.50 0.53 0.53 0.51 0.48 0.45 0.42 0.41 0.42 0.34 0.26 0.22 0.19 0.18 0.15 0.13 0.13 0.13 0.16 0.17 0.19 0.24 0.29 0.35 0.41 0.42 0.42 0.42
0.34 0.34 0.35 0.34 0.31 0.30 0.32 0.34 0.37 0.41 0.45 0.47 0.49 0.50 0.51 0.51 0.50 0.48 0.44 0.42 0.40 0.39 0.38 0.38 0.34 0.27 0.21 0.16 0.16 0.15 0.14 0.11 0.11 0.09 0.11 0.12 0.15 0.18 0.20 0.26 0.30 0.31 0.32
0.28 0.30 0.32 0.32 0.34 0.35 0.38 0.42 0.45 0.48 0.53 0.56 0.59 0.57 0.52 0.48 0.41 0.37 0.35 0.34 0.33 0.34 0.39 0.41 0.36 0.28 0.21 0.17 0.15 0.14 0.15 0.14 0.11 0.09 0.08 0.07 0.07 0.08 0.10 0.14 0.20 0.28 0.35
0.25 0.30 0.37 0.42 0.46 0.52 0.61 0.61 0.56 0.54 0.54 0.52 0.50 0.48 0.44 0.41 0.37 0.36 0.35 0.32 0.33 0.39 0.45 0.44 0.37 0.26 0.15 0.11 0.13 0.18 0.23 0.27 0.21 0.09 0.10 0.08 0.06 0.07 0.09 0.14 0.23 0.32 0.41
0.34 0.39 0.46 0.56 0.61 0.63 0.64 0.56 0.51 0.46 0.47 0.44 0.39 0.35 0.30 0.26 0.24 0.22 0.24 0.29 0.30 0.32 0.32 0.29 0.24 0.16 0.15 0.17 0.27 0.38 0.34 0.32 0.22 0.09 0.10 0.11 0.08 0.09 0.11 0.17 0.28 0.33 0.41
0.45 0.49 0.52 0.57 0.61 0.61 0.57 0.50 0.45 0.37 0.33 0.31 0.28 0.25 0.21 0.19 0.18 0.19 0.24 0.28 0.21 0.14 0.11 0.10 0.12 0.16 0.19 0.20 0.27 0.37 0.34 0.27 0.15 0.09 0.12 0.18 0.13 0.13 0.12 0.16 0.26 0.28 0.32
0.54 0.53 0.52 0.49 0.45 0.42 0.40 0.36 0.33 0.28 0.24 0.23 0.21 0.21 0.21 0.18 0.19 0.30 0.35 0.30 0.16 0.07 0.05 0.09 0.14 0.14 0.12 0.12 0.14 0.30 0.41 0.43 0.28 0.10 0.09 0.15 0.12 0.14 0.18 0.19 0.24 0.28 0.29
0.44 0.41 0.36 0.33 0.30 0.26 0.25 0.24 0.23 0.20 0.19 0.20 0.21 0.20 0.20 0.18 0.25 0.35 0.31 0.25 0.15 0.09 0.11 0.08 0.04 0.02 0.02 0.04 0.10 0.26 0.60 0.87 0.62 0.31 0.11 0.24 0.27 0.32 0.45 0.24 0.23 0.25 0.26

GEFSMA_prec_meanprecacc_126.txt.gz
Total_Precipitation_Accumulation
0.07 0.06 0.04 0.03 0.02 0.01 0.01 0.01 0.00 0.00 0.01 0.00 0.00 0.00 0.00 0.00 0.00 0.01 0.01 0.00 0.00 0.01 0.03 0.06 0.07 0.10 0.14 0.20 0.23 0.22 0.21 0.20 0.19 0.18 0.17 0.17 0.17 0.17 0.17 0.18 0.19 0.19 0.20
0.09 0.07 0.05 0.04 0.03 0.03 0.02 0.03 0.02 0.01 0.01 0.01 0.00 0.00 0.01 0.01 0.01 0.01 0.01 0.00 0.00 0.01 0.02 0.05 0.08 0.14 0.20 0.26 0.28 0.28 0.27 0.24 0.22 0.21 0.21 0.21 0.20 0.20 0.19 0.20 0.21 0.22 0.23
0.11 0.09 0.07 0.05 0.04 0.04 0.04 0.04 0.03 0.02 0.02 0.02 0.02 0.02 0.02 0.03 0.03 0.02 0.02 0.02 0.01 0.01 0.02 0.04 0.08 0.13 0.19 0.25 0.30 0.33 0.33 0.30 0.26 0.23 0.23 0.24 0.25 0.25 0.25 0.26 0.27 0.28 0.28
0.15 0.15 0.12 0.10 0.08 0.06 0.07 0.07 0.06 0.05 0.04 0.04 0.04 0.04 0.05 0.05 0.04 0.04 0.04 0.03 0.03 0.03 0.03 0.03 0.05 0.09 0.13 0.20 0.26 0.31 0.35 0.35 0.32 0.29 0.30 0.31 0.31 0.31 0.34 0.35 0.35 0.35 0.35
0.26 0.24 0.20 0.16 0.15 0.14 0.12 0.11 0.10 0.09 0.08 0.07 0.06 0.07 0.08 0.07 0.06 0.05 0.04 0.03 0.02 0.02 0.02 0.02 0.03 0.04 0.07 0.13 0.18 0.26 0.37 0.41 0.39 0.36 0.35 0.36 0.37 0.39 0.42 0.46 0.47 0.48 0.49
0.38 0.32 0.27 0.24 0.23 0.22 0.20 0.18 0.16 0.14 0.12 0.13 0.13 0.09 0.09 0.07 0.06 0.05 0.04 0.04 0.03 0.03 0.03 0.03 0.03 0.03 0.04 0.07 0.12 0.18 0.30 0.41 0.44 0.42 0.40 0.39 0.41 0.45 0.50 0.56 0.57 0.58 0.62
0.48 0.41 0.37 0.36 0.33 0.29 0.26 0.23 0.22 0.19 0.18 0.19 0.19 0.14 0.10 0.08 0.06 0.06 0.06 0.06 0.05 0.05 0.05 0.05 0.05 0.05 0.05 0.07 0.09 0.12 0.19 0.33 0.44 0.47 0.46 0.46 0.48 0.53 0.61 0.68 0.70 0.72 0.75
0.66 0.57 0.50 0.46 0.43 0.40 0.36 0.33 0.34 0.32 0.30 0.31 0.33 0.33 0.22 0.13 0.08 0.08 0.09 0.09 0.09 0.08 0.08 0.08 0.08 0.08 0.08 0.08 0.09 0.11 0.13 0.22 0.36 0.51 0.60 0.61 0.62 0.65 0.72 0.83 0.89 0.95 1.01
0.87 0.75 0.66 0.64 0.62 0.61 0.56 0.53 0.53 0.50 0.47 0.46 0.48 0.54 0.43 0.26 0.16 0.11 0.10 0.11 0.11 0.10 0.09 0.09 0.10 0.11 0.11 0.11 0.12 0.15 0.19 0.23 0.34 0.51 0.70 0.79 0.81 0.86 0.96 1.07 1.15 1.24 1.26
1.00 0.93 0.87 0.80 0.75 0.74 0.71 0.75 0.81 0.78 0.72 0.60 0.55 0.53 0.53 0.46 0.41 0.28 0.16 0.14 0.13 0.12 0.13 0.12 0.13 0.14 0.14 0.16 0.19 0.23 0.29 0.34 0.44 0.59 0.77 0.92 1.02 1.15 1.30 1.39 1.47 1.54 1.50
0.95 0.99 0.97 0.90 0.80 0.75 0.74 0.77 0.79 0.83 0.80 0.74 0.69 0.68 0.67 0.59 0.55 0.52 0.35 0.22 0.20 0.19 0.19 0.19 0.20 0.22 0.24 0.25 0.28 0.34 0.42 0.48 0.59 0.74 0.93 1.12 1.26 1.41 1.58 1.70 1.78 1.83 1.82
0.85 0.86 0.91 0.88 0.86 0.84 0.83 0.86 0.89 0.90 0.91 0.90 0.85 0.78 0.75 0.69 0.61 0.64 0.59 0.43 0.36 0.31 0.31 0.33 0.35 0.36 0.36 0.37 0.39 0.47 0.53 0.61 0.73 0.86 1.07 1.26 1.37 1.47 1.61 1.77 1.91 1.98 2.03
0.84 0.84 0.89 0.91 0.90 0.89 0.92 0.95 0.94 0.89 0.89 0.88 0.86 0.82 0.79 0.74 0.70 0.77 0.82 0.72 0.61 0.51 0.49 0.49 0.48 0.48 0.49 0.49 0.51 0.60 0.60 0.65 0.70 0.81 1.00 1.19 1.25 1.22 1.24 1.37 1.53 1.64 1.77
0.73 0.79 0.85 0.88 0.90 0.91 0.91 0.91 0.90 0.87 0.85 0.84 0.83 0.81 0.77 0.72 0.70 0.74 0.82 0.92 0.91 0.75 0.65 0.61 0.61 0.62 0.61 0.60 0.59 0.63 0.57 0.67 0.70 0.74 0.83 0.91 0.89 0.82 0.80 0.88 1.01 1.14 1.26
0.66 0.66 0.70 0.73 0.76 0.78 0.79 0.82 0.80 0.76 0.74 0.73 0.71 0.71 0.70 0.66 0.64 0.67 0.74 0.88 1.05 1.02 0.83 0.69 0.68 0.67 0.69 0.67 0.67 0.58 0.49 0.60 0.64 0.64 0.67 0.70 0.67 0.65 0.66 0.70 0.78 0.90 1.00
0.59 0.58 0.58 0.58 0.60 0.63 0.67 0.71 0.72 0.70 0.69 0.65 0.64 0.64 0.63 0.63 0.64 0.66 0.71 0.77 0.88 0.98 0.91 0.69 0.60 0.59 0.62 0.63 0.67 0.56 0.50 0.60 0.58 0.55 0.55 0.56 0.56 0.59 0.62 0.65 0.68 0.75 0.87
0.52 0.52 0.54 0.54 0.53 0.54 0.55 0.60 0.64 0.66 0.67 0.64 0.62 0.62 0.62 0.62 0.63 0.65 0.68 0.71 0.73 0.80 0.81 0.68 0.58 0.56 0.56 0.55 0.56 0.53 0.47 0.44 0.41 0.44 0.44 0.43 0.44 0.49 0.53 0.57 0.61 0.65 0.73
0.45 0.43 0.42 0.42 0.44 0.44 0.46 0.49 0.53 0.56 0.59 0.60 0.60 0.61 0.63 0.64 0.67 0.70 0.71 0.70 0.68 0.67 0.68 0.64 0.55 0.48 0.45 0.43 0.41 0.39 0.36 0.33 0.29 0.33 0.34 0.33 0.35 0.39 0.44 0.47 0.50 0.56 0.63
0.47 0.47 0.42 0.37 0.36 0.37 0.40 0.41 0.43 0.46 0.49 0.52 0.56 0.59 0.62 0.66 0.70 0.70 0.69 0.66 0.63 0.59 0.58 0.58 0.49 0.40 0.36 0.33 0.33 0.30 0.27 0.24 0.22 0.24 0.24 0.24 0.28 0.32 0.37 0.42 0.44 0.46 0.48
0.43 0.43 0.43 0.40 0.37 0.36 0.38 0.40 0.45 0.49 0.53 0.56 0.57 0.59 0.61 0.61 0.61 0.60 0.58 0.56 0.56 0.55 0.55 0.55 0.52 0.44 0.37 0.31 0.30 0.29 0.25 0.21 0.19 0.16 0.16 0.16 0.19 0.20 0.22 0.27 0.32 0.35 0.39
0.36 0.38 0.40 0.40 0.41 0.42 0.45 0.48 0.52 0.56 0.60 0.63 0.65 0.63 0.59 0.56 0.52 0.49 0.47 0.46 0.44 0.48 0.55 0.58 0.54 0.47 0.39 0.35 0.31 0.28 0.28 0.25 0.20 0.16 0.13 0.11 0.11 0.10 0.12 0.17 0.22 0.31 0.40
0.33 0.37 0.43 0.49 0.53 0.58 0.69 0.68 0.63 0.62 0.62 0.60 0.57 0.54 0.52 0.50 0.47 0.48 0.47 0.44 0.46 0.53 0.61 0.61 0.51 0.40 0.28 0.24 0.25 0.30 0.34 0.38 0.30 0.16 0.15 0.13 0.10 0.10 0.12 0.17 0.26 0.34 0.44
0.43 0.48 0.52 0.62 0.66 0.69 0.72 0.64 0.59 0.54 0.55 0.53 0.47 0.42 0.38 0.35 0.35 0.33 0.37 0.42 0.43 0.46 0.47 0.45 0.39 0.28 0.26 0.27 0.38 0.47 0.42 0.39 0.28 0.14 0.14 0.15 0.12 0.13 0.14 0.20 0.31 0.37 0.44
0.53 0.57 0.58 0.62 0.66 0.66 0.64 0.57 0.53 0.45 0.40 0.38 0.35 0.32 0.28 0.26 0.27 0.30 0.36 0.41 0.34 0.28 0.26 0.23 0.25 0.28 0.30 0.29 0.36 0.46 0.42 0.33 0.20 0.13 0.15 0.21 0.15 0.16 0.15 0.19 0.28 0.31 0.36
0.58 0.58 0.56 0.53 0.50 0.48 0.47 0.42 0.40 0.35 0.32 0.29 0.27 0.27 0.28 0.25 0.27 0.39 0.45 0.41 0.29 0.20 0.20 0.24 0.28 0.27 0.24 0.21 0.22 0.37 0.48 0.49 0.33 0.13 0.11 0.17 0.14 0.16 0.20 0.22 0.26 0.31 0.32
0.47 0.44 0.39 0.36 0.33 0.30 0.31 0.31 0.31 0.27 0.27 0.27 0.28 0.29 0.30 0.28 0.35 0.45 0.40 0.36 0.27 0.21 0.23 0.19 0.16 0.13 0.11 0.12 0.17 0.31 0.65 0.91 0.64 0.34 0.13 0.26 0.28 0.33 0.46 0.26 0.24 0.26 0.28

GEFSMA_prec_meanprecacc_132.txt.gz
Total_Precipitation_Accumulation
0.14 0.12 0.08 0.06 0.04 0.04 0.04 0.03 0.02 0.01 0.01 0.01 0.00 0.00 0.00 0.00 0.00 0.01 0.01 0.00 0.00 0.02 0.04 0.06 0.08 0.10 0.15 0.21 0.24 0.23 0.22 0.21 0.20 0.18 0.18 0.18 0.18 0.18 0.18 0.19 0.19 0.20 0.20
0.15 0.13 0.09 0.08 0.06 0.05 0.04 0.04 0.03 0.02 0.02 0.01 0.01 0.01 0.01 0.01 0.02 0.01 0.01 0.01 0.01 0.01 0.02 0.05 0.09 0.15 0.21 0.28 0.30 0.29 0.28 0.25 0.23 0.22 0.22 0.22 0.21 0.21 0.21 0.21 0.22 0.23 0.24
0.18 0.15 0.12 0.08 0.08 0.08 0.06 0.06 0.05 0.04 0.03 0.03 0.02 0.03 0.02 0.03 0.03 0.02 0.03 0.02 0.02 0.01 0.02 0.04 0.09 0.14 0.20 0.27 0.32 0.36 0.35 0.32 0.27 0.25 0.24 0.25 0.26 0.26 0.27 0.28 0.29 0.29 0.30
0.21 0.21 0.18 0.14 0.12 0.10 0.10 0.09 0.08 0.07 0.05 0.04 0.04 0.04 0.05 0.05 0.04 0.04 0.04 0.03 0.03 0.03 0.03 0.03 0.06 0.10 0.15 0.22 0.28 0.35 0.39 0.37 0.33 0.30 0.31 0.33 0.33 0.33 0.35 0.37 0.37 0.37 0.37
0.33 0.31 0.25 0.22 0.21 0.20 0.16 0.14 0.11 0.10 0.09 0.08 0.07 0.08 0.08 0.07 0.06 0.05 0.04 0.03 0.02 0.02 0.02 0.03 0.03 0.05 0.08 0.14 0.20 0.29 0.41 0.44 0.41 0.38 0.36 0.37 0.39 0.41 0.44 0.48 0.48 0.49 0.51
0.45 0.41 0.34 0.31 0.29 0.28 0.26 0.23 0.18 0.15 0.13 0.14 0.14 0.10 0.09 0.07 0.06 0.05 0.04 0.04 0.03 0.03 0.03 0.03 0.04 0.04 0.05 0.09 0.13 0.20 0.33 0.45 0.48 0.45 0.42 0.41 0.44 0.48 0.53 0.59 0.60 0.61 0.64
0.58 0.50 0.45 0.44 0.40 0.34 0.30 0.28 0.26 0.23 0.20 0.20 0.20 0.15 0.11 0.09 0.07 0.06 0.06 0.06 0.05 0.05 0.05 0.06 0.06 0.06 0.07 0.08 0.11 0.13 0.22 0.37 0.48 0.52 0.51 0.49 0.51 0.56 0.64 0.71 0.74 0.75 0.79
0.80 0.69 0.59 0.54 0.51 0.47 0.41 0.37 0.38 0.36 0.33 0.33 0.35 0.34 0.23 0.14 0.09 0.08 0.09 0.09 0.09 0.09 0.09 0.09 0.09 0.09 0.09 0.09 0.10 0.12 0.15 0.25 0.42 0.58 0.66 0.66 0.67 0.70 0.77 0.88 0.93 1.00 1.05
1.00 0.90 0.79 0.74 0.70 0.68 0.62 0.58 0.58 0.55 0.50 0.49 0.51 0.56 0.45 0.27 0.17 0.11 0.10 0.11 0.12 0.10 0.10 0.10 0.10 0.11 0.11 0.12 0.13 0.17 0.21 0.25 0.38 0.58 0.78 0.87 0.88 0.92 1.03 1.13 1.21 1.30 1.31
1.10 1.06 1.02 0.94 0.85 0.82 0.77 0.81 0.87 0.83 0.76 0.64 0.57 0.55 0.55 0.48 0.43 0.29 0.16 0.14 0.14 0.13 0.13 0.13 0.13 0.14 0.15 0.17 0.20 0.25 0.31 0.37 0.48 0.64 0.86 1.02 1.12 1.24 1.40 1.48 1.55 1.62 1.57
1.02 1.09 1.09 1.05 0.93 0.84 0.82 0.84 0.86 0.89 0.86 0.80 0.74 0.71 0.69 0.62 0.57 0.54 0.36 0.22 0.21 0.20 0.20 0.20 0.21 0.23 0.25 0.28 0.31 0.37 0.45 0.51 0.64 0.80 1.02 1.24 1.42 1.56 1.72 1.84 1.90 1.94 1.92
0.90 0.92 0.98 0.98 0.98 0.95 0.92 0.94 0.97 0.98 0.98 0.96 0.90 0.83 0.79 0.73 0.65 0.67 0.62 0.45 0.37 0.32 0.32 0.33 0.35 0.37 0.38 0.40 0.43 0.52 0.58 0.65 0.77 0.93 1.17 1.40 1.56 1.66 1.77 1.95 2.08 2.13 2.15
0.87 0.89 0.96 1.00 1.00 1.00 1.03 1.05 1.03 0.97 0.96 0.94 0.92 0.88 0.83 0.77 0.73 0.80 0.86 0.75 0.63 0.52 0.50 0.50 0.49 0.49 0.50 0.52 0.55 0.65 0.66 0.70 0.76 0.89 1.10 1.34 1.42 1.40 1.44 1.59 1.74 1.82 1.91
0.76 0.83 0.90 0.95 0.98 0.99 1.01 1.02 1.00 0.96 0.93 0.91 0.89 0.87 0.83 0.77 0.75 0.79 0.88 0.98 0.96 0.79 0.67 0.63 0.63 0.64 0.64 0.63 0.63 0.69 0.63 0.74 0.77 0.83 0.94 1.03 1.01 0.95 0.95 1.04 1.17 1.29 1.38
0.68 0.68 0.73 0.78 0.83 0.86 0.88 0.92 0.92 0.86 0.83 0.80 0.78 0.78 0.77 0.72 0.69 0.72 0.80 0.95 1.14 1.10 0.88 0.72 0.70 0.70 0.72 0.70 0.72 0.64 0.55 0.66 0.71 0.72 0.76 0.81 0.79 0.76 0.76 0.81 0.90 1.03 1.11
0.62 0.60 0.60 0.60 0.63 0.69 0.75 0.81 0.82 0.79 0.77 0.73 0.69 0.69 0.69 0.68 0.70 0.73 0.78 0.85 0.98 1.10 1.00 0.75 0.65 0.63 0.66 0.68 0.73 0.63 0.57 0.66 0.65 0.64 0.64 0.67 0.70 0.73 0.75 0.77 0.79 0.85 0.96
0.56 0.55 0.57 0.56 0.55 0.56 0.61 0.68 0.73 0.75 0.76 0.73 0.70 0.68 0.67 0.67 0.69 0.71 0.75 0.79 0.83 0.91 0.93 0.77 0.65 0.62 0.63 0.63 0.64 0.61 0.56 0.51 0.49 0.55 0.55 0.54 0.57 0.63 0.69 0.70 0.70 0.71 0.79
0.48 0.46 0.45 0.46 0.47 0.47 0.50 0.55 0.61 0.64 0.67 0.69 0.71 0.72 0.72 0.73 0.76 0.78 0.80 0.79 0.78 0.78 0.80 0.76 0.64 0.57 0.54 0.51 0.50 0.50 0.48 0.44 0.39 0.45 0.48 0.47 0.49 0.53 0.59 0.59 0.59 0.62 0.68
0.50 0.50 0.46 0.42 0.41 0.42 0.45 0.48 0.51 0.56 0.58 0.60 0.64 0.70 0.73 0.76 0.81 0.81 0.80 0.78 0.74 0.71 0.71 0.72 0.63 0.53 0.48 0.45 0.46 0.44 0.43 0.41 0.37 0.40 0.41 0.41 0.43 0.45 0.48 0.52 0.53 0.53 0.54
0.45 0.45 0.46 0.44 0.41 0.41 0.44 0.47 0.53 0.58 0.62 0.65 0.66 0.68 0.71 0.72 0.72 0.70 0.68 0.67 0.68 0.68 0.67 0.69 0.67 0.59 0.52 0.47 0.48 0.48 0.47 0.40 0.37 0.32 0.33 0.32 0.33 0.33 0.33 0.36 0.39 0.41 0.43
0.39 0.42 0.44 0.44 0.45 0.45 0.49 0.54 0.57 0.63 0.68 0.72 0.74 0.73 0.69 0.66 0.61 0.59 0.57 0.56 0.55 0.60 0.67 0.71 0.67 0.60 0.53 0.50 0.48 0.46 0.48 0.45 0.39 0.32 0.28 0.25 0.22 0.20 0.21 0.25 0.29 0.36 0.45
0.38 0.43 0.49 0.55 0.57 0.62 0.73 0.74 0.69 0.67 0.69 0.68 0.66 0.63 0.61 0.59 0.57 0.58 0.58 0.55 0.57 0.65 0.73 0.73 0.63 0.51 0.40 0.37 0.41 0.48 0.53 0.56 0.47 0.30 0.27 0.25 0.21 0.19 0.20 0.25 0.33 0.40 0.49
0.49 0.56 0.59 0.69 0.73 0.76 0.77 0.70 0.66 0.61 0.62 0.61 0.56 0.51 0.47 0.43 0.44 0.41 0.47 0.52 0.53 0.56 0.59 0.57 0.50 0.39 0.37 0.39 0.52 0.65 0.60 0.55 0.41 0.26 0.26 0.28 0.24 0.23 0.22 0.27 0.39 0.43 0.50
0.59 0.66 0.66 0.69 0.73 0.74 0.70 0.62 0.58 0.51 0.47 0.45 0.42 0.39 0.35 0.34 0.34 0.38 0.45 0.51 0.43 0.38 0.36 0.34 0.35 0.39 0.41 0.42 0.49 0.60 0.58 0.50 0.37 0.29 0.28 0.34 0.27 0.26 0.23 0.26 0.35 0.37 0.41
0.63 0.65 0.64 0.59 0.55 0.54 0.53 0.47 0.44 0.40 0.38 0.36 0.35 0.35 0.35 0.32 0.35 0.49 0.54 0.51 0.39 0.30 0.30 0.34 0.38 0.38 0.36 0.35 0.37 0.53 0.65 0.66 0.49 0.28 0.24 0.28 0.24 0.24 0.26 0.28 0.33 0.37 0.38
0.50 0.48 0.44 0.40 0.37 0.34 0.34 0.34 0.34 0.30 0.30 0.31 0.34 0.35 0.37 0.35 0.41 0.53 0.48 0.46 0.38 0.31 0.32 0.29 0.26 0.25 0.22 0.23 0.30 0.44 0.77 1.03 0.76 0.45 0.22 0.33 0.35 0.39 0.52 0.31 0.30 0.32 0.33